M I D A S
Marine Information and Data Acquisition System
Tripno 1672 of the Zeeleeuw from 2009-04-06 13:38:23 to 2009-04-07 13:11:26
Back to CruiseResearch ActivitiesStationsMapUnderway DataData graphs

EquipmentUnitsComment
TimeDGPSUTC
LatitudeDGPSDM.mWGS84
LongitudeDGPSDM.mWGS84
TemperatureSBE03/SBE38deg celciusITS90
ConductivitySBE21S/mITS90
SalinitySBE21 Practical Salinity Units
ChlorophylAChelsea fluorimeterg/lCalibrated in Aceton
Missing or incorrect values are displayed as -999
Sea surface data collected by the RV Zeeleeuw from 2009-04-06 08:38:26 to 2009-04-07 13:17:48
                                                                                    Next 1000 lines
Time Latitude Longitude Temperature Conductivity Salinity ChlorophylA
2009-04-06 08:38:36 51°13.071 2°50.776 -999 0.085634 0.419097 -1.139864
2009-04-06 08:38:41 51°13.071 2°50.781 -999 0.085634 0.419116 -1.139864
2009-04-06 08:38:46 51°13.071 2°50.786 -999 0.085634 0.419129 -1.139864
2009-04-06 08:38:51 51°13.071 2°50.79 -999 0.085634 0.419148 -1.139864
2009-04-06 08:38:56 51°13.07 2°50.795 -999 0.085634 0.419161 -1.139864
2009-04-06 08:39:01 51°13.069 2°50.799 -999 0.085634 0.41918 -1.139864
2009-04-06 08:39:06 51°13.068 2°50.804 -999 0.085634 0.41918 -1.139864
2009-04-06 08:39:11 51°13.066 2°50.808 -999 0.085634 0.419193 -1.139864
2009-04-06 08:39:16 51°13.064 2°50.812 -999 0.085634 0.419212 -1.139864
2009-04-06 08:39:21 51°13.062 2°50.816 -999 0.085634 0.419224 -1.139864
2009-04-06 08:39:26 51°13.06 2°50.818 -999 0.085634 0.419244 -1.139864
2009-04-06 08:39:31 51°13.059 2°50.821 -999 0.085634 0.419263 -1.139864
2009-04-06 08:39:35 51°13.057 2°50.823 -999 0.085634 0.419263 -1.139864
2009-04-06 08:39:41 51°13.055 2°50.825 -999 0.085634 0.419275 -1.139864
2009-04-06 08:39:46 51°13.053 2°50.827 -999 0.085634 0.419288 -1.139864
2009-04-06 08:39:51 51°13.052 2°50.828 -999 0.085634 0.419307 -1.139864
2009-04-06 08:39:55 51°13.05 2°50.828 -999 0.085634 0.41932 -1.139864
2009-04-06 08:40:01 51°13.049 2°50.828 -999 0.085634 0.419333 -1.139864
2009-04-06 08:40:06 51°13.048 2°50.828 -999 0.085634 0.419333 -1.139864
2009-04-06 08:40:11 51°13.046 2°50.827 -999 0.085634 0.419345 -1.139864
2009-04-06 08:40:16 51°13.045 2°50.827 -999 0.085634 0.419358 -1.139864
2009-04-06 08:40:21 51°13.044 2°50.827 -999 0.085634 0.419377 -1.139864
2009-04-06 08:40:26 51°13.044 2°50.826 -999 0.085634 0.41939 -1.139864
2009-04-06 08:40:31 51°13.044 2°50.826 -999 0.085634 0.419403 -1.139864
2009-04-06 08:40:36 51°13.043 2°50.825 -999 0.085634 0.419403 -1.139864
2009-04-06 08:40:41 51°13.043 2°50.825 -999 0.085634 0.419422 -1.139864
2009-04-06 08:40:46 51°13.043 2°50.825 -999 0.085634 0.419434 -1.139864
2009-04-06 08:40:51 51°13.043 2°50.824 -999 0.085634 0.419453 -1.139864
2009-04-06 08:40:56 51°13.043 2°50.824 -999 0.085634 0.419473 -1.139864
2009-04-06 08:41:01 51°13.044 2°50.823 -999 0.085634 0.419485 -1.139864
2009-04-06 08:41:07 51°13.044 2°50.823 -999 0.085634 0.419485 -1.139864
2009-04-06 08:41:11 51°13.044 2°50.823 -999 0.085634 0.419504 -1.139864
2009-04-06 08:41:16 51°13.045 2°50.822 -999 0.085635 0.419524 -1.139864
2009-04-06 08:41:21 51°13.045 2°50.822 -999 0.085635 0.419536 -1.139864
2009-04-06 08:41:26 51°13.046 2°50.822 -999 0.085635 0.419549 -1.139864
2009-04-06 08:41:31 51°13.046 2°50.822 -999 0.085635 0.419562 -1.139864
2009-04-06 08:41:35 51°13.047 2°50.822 -999 0.085635 0.419562 -1.139864
2009-04-06 08:41:41 51°13.048 2°50.821 -999 0.085635 0.419574 -1.139864
2009-04-06 08:41:46 51°13.048 2°50.821 -999 0.085635 0.419587 -1.139864
2009-04-06 08:41:51 51°13.049 2°50.821 -999 0.085635 0.4196 -1.139864
2009-04-06 08:41:55 51°13.05 2°50.821 -999 0.085635 0.419613 -1.139864
2009-04-06 08:42:01 51°13.05 2°50.821 -999 0.085635 0.419619 -1.139864
2009-04-06 08:42:06 51°13.051 2°50.821 -999 0.085635 0.419619 -1.139864
2009-04-06 08:42:11 51°13.052 2°50.821 -999 0.085635 0.419638 -1.139864
2009-04-06 08:42:16 51°13.053 2°50.822 -999 0.085635 0.419645 -1.139864
2009-04-06 08:42:21 51°13.054 2°50.822 -999 0.085635 0.419664 -1.139864
2009-04-06 08:42:26 51°13.054 2°50.822 -999 0.085635 0.419664 -1.139864
2009-04-06 08:42:31 51°13.055 2°50.822 -999 0.085635 0.419683 -1.139864
2009-04-06 08:42:36 51°13.056 2°50.822 -999 0.085635 0.419683 -1.139864
2009-04-06 08:42:41 51°13.057 2°50.823 -999 0.085635 0.419696 -1.139864
2009-04-06 08:42:46 51°13.058 2°50.823 -999 0.085635 0.419708 -1.139864
2009-04-06 08:42:51 51°13.059 2°50.823 -999 0.085635 0.419721 -1.174688
2009-04-06 08:42:56 51°13.06 2°50.823 -999 0.085635 0.419734 -1.139864
2009-04-06 08:43:01 51°13.061 2°50.824 -999 0.085635 0.419747 -1.139864
2009-04-06 08:43:07 51°13.062 2°50.824 -999 0.085635 0.419747 -1.139864
2009-04-06 08:43:11 51°13.062 2°50.825 -999 0.085635 0.419759 -1.139864
2009-04-06 08:43:16 51°13.064 2°50.825 -999 0.085635 0.419772 -1.139864
2009-04-06 08:43:21 51°13.065 2°50.825 -999 0.085635 0.419791 -1.139864
2009-04-06 08:43:26 51°13.066 2°50.826 -999 0.085635 0.419804 -1.139864
2009-04-06 08:43:31 51°13.067 2°50.826 -999 0.085635 0.419823 -1.139864
2009-04-06 08:43:35 51°13.067 2°50.827 -999 0.085635 0.419823 -1.139864
2009-04-06 08:43:41 51°13.069 2°50.827 -999 0.085635 0.419836 -1.139864
2009-04-06 08:43:46 51°13.07 2°50.828 -999 0.085635 0.419849 -1.139864
2009-04-06 08:43:51 51°13.071 2°50.828 -999 0.085635 0.419868 -1.139864
2009-04-06 08:43:55 51°13.072 2°50.828 -999 0.085635 0.41988 -1.139864
2009-04-06 08:44:01 51°13.073 2°50.829 -999 0.085635 0.419893 -1.139864
2009-04-06 08:44:06 51°13.074 2°50.83 -999 0.085635 0.419893 -1.139864
2009-04-06 08:44:11 51°13.075 2°50.831 -999 0.085635 0.419906 -1.139864
2009-04-06 08:44:16 51°13.076 2°50.831 -999 0.085635 0.419919 -1.139864
2009-04-06 08:44:21 51°13.077 2°50.832 -999 0.085635 0.419938 -1.139864
2009-04-06 08:44:26 51°13.079 2°50.833 -999 0.085635 0.419951 -1.139864
2009-04-06 08:44:31 51°13.08 2°50.834 -999 0.085635 0.419963 -1.139864
2009-04-06 08:44:36 51°13.081 2°50.834 -999 0.085635 0.419963 -1.139864
2009-04-06 08:44:41 51°13.082 2°50.835 -999 0.085635 0.419983 -1.139864
2009-04-06 08:44:46 51°13.083 2°50.836 -999 0.085635 0.419989 -1.139864
2009-04-06 08:44:51 51°13.084 2°50.837 -999 0.085635 0.420008 -1.174688
2009-04-06 08:44:56 51°13.085 2°50.838 -999 0.085635 0.420021 -1.139864
2009-04-06 08:45:01 51°13.086 2°50.839 -999 0.085635 0.420034 -1.139864
2009-04-06 08:45:07 51°13.088 2°50.84 -999 0.085635 0.420034 -1.139864
2009-04-06 08:45:11 51°13.089 2°50.841 -999 0.085635 0.420053 -1.139864
2009-04-06 08:45:16 51°13.09 2°50.841 -999 0.085635 0.420066 -1.139864
2009-04-06 08:45:21 51°13.092 2°50.842 -999 0.085635 0.420078 -1.139864
2009-04-06 08:45:26 51°13.093 2°50.843 -999 0.085635 0.420098 -1.139864
2009-04-06 08:45:31 51°13.094 2°50.844 -999 0.085635 0.42011 -1.139864
2009-04-06 08:45:35 51°13.095 2°50.845 -999 0.085635 0.42011 -1.139864
2009-04-06 08:45:41 51°13.096 2°50.846 -999 0.085635 0.420129 -1.139864
2009-04-06 08:45:46 51°13.098 2°50.847 -999 0.085635 0.420142 -1.139864
2009-04-06 08:45:51 51°13.098 2°50.848 -999 0.085635 0.420161 -1.139864
2009-04-06 08:45:55 51°13.1 2°50.849 -999 0.085635 0.420168 -1.139864
2009-04-06 08:46:01 51°13.101 2°50.85 -999 0.085635 0.420187 -1.139864
2009-04-06 08:46:06 51°13.102 2°50.852 -999 0.085635 0.420187 -1.139864
2009-04-06 08:46:11 51°13.103 2°50.853 -999 0.085635 0.4202 -1.139864
2009-04-06 08:46:16 51°13.105 2°50.854 -999 0.085635 0.420213 -1.174688
2009-04-06 08:46:21 51°13.106 2°50.855 -999 0.085635 0.420232 -1.139864
2009-04-06 08:46:26 51°13.107 2°50.856 -999 0.085635 0.420245 -1.174688
2009-04-06 08:46:31 51°13.108 2°50.857 -999 0.085635 0.420257 -1.139864
2009-04-06 08:46:36 51°13.109 2°50.859 -999 0.085635 0.420257 -1.139864
2009-04-06 08:46:41 51°13.111 2°50.859 -999 0.085635 0.42027 -1.139864
2009-04-06 08:46:46 51°13.112 2°50.861 -999 0.085635 0.420283 -1.174688
2009-04-06 08:46:51 51°13.114 2°50.862 -999 0.085635 0.420302 -1.139864
2009-04-06 08:46:56 51°13.115 2°50.862 -999 0.085635 0.420315 -1.174688
2009-04-06 08:47:01 51°13.116 2°50.864 -999 0.085635 0.420321 -1.139864
2009-04-06 08:47:06 51°13.118 2°50.865 -999 0.085635 0.420321 -1.139864
2009-04-06 08:47:11 51°13.119 2°50.866 -999 0.085635 0.42034 -1.174688
2009-04-06 08:47:16 51°13.12 2°50.867 -999 0.085635 0.420353 -1.139864
2009-04-06 08:47:21 51°13.121 2°50.869 -999 0.085635 0.420366 -1.139864
2009-04-06 08:47:26 51°13.122 2°50.87 -999 0.085635 0.420372 -1.139864
2009-04-06 08:47:31 51°13.124 2°50.871 -999 0.085635 0.420385 -1.139864
2009-04-06 08:47:35 51°13.125 2°50.872 -999 0.085635 0.420385 -1.139864
2009-04-06 08:47:41 51°13.126 2°50.874 -999 0.085635 0.420404 -1.139864
2009-04-06 08:47:46 51°13.128 2°50.875 -999 0.085635 0.420417 -1.139864
2009-04-06 08:47:51 51°13.129 2°50.876 -999 0.085635 0.420424 -1.139864
2009-04-06 08:47:55 51°13.13 2°50.877 -999 0.085635 0.42043 -1.139864
2009-04-06 08:48:01 51°13.132 2°50.879 -999 0.085635 0.420449 -1.139864
2009-04-06 08:48:06 51°13.133 2°50.88 -999 0.085635 0.420462 -1.139864
2009-04-06 08:48:11 51°13.134 2°50.881 -999 0.085635 0.420462 -1.139864
2009-04-06 08:48:16 51°13.136 2°50.883 -999 0.085635 0.420475 -1.139864
2009-04-06 08:48:21 51°13.137 2°50.884 -999 0.085635 0.420481 -1.139864
2009-04-06 08:48:26 51°13.138 2°50.886 -999 0.085635 0.4205 -1.139864
2009-04-06 08:48:31 51°13.139 2°50.887 -999 0.085635 0.420507 -1.139864
2009-04-06 08:48:36 51°13.141 2°50.889 -999 0.085635 0.420507 -1.139864
2009-04-06 08:48:41 51°13.142 2°50.89 -999 0.085635 0.42052 -1.139864
2009-04-06 08:48:46 51°13.144 2°50.891 -999 0.085635 0.420526 -1.139864
2009-04-06 08:48:51 51°13.145 2°50.892 -999 0.085635 0.420539 -1.174688
2009-04-06 08:48:56 51°13.147 2°50.894 -999 0.085635 0.420545 -1.139864
2009-04-06 08:49:01 51°13.148 2°50.895 -999 0.085635 0.420552 -1.139864
2009-04-06 08:49:06 51°13.149 2°50.897 -999 0.085635 0.420552 -1.139864
2009-04-06 08:49:11 51°13.151 2°50.898 -999 0.085635 0.420558 -1.139864
2009-04-06 08:49:16 51°13.152 2°50.9 -999 0.085635 0.420565 -1.139864
2009-04-06 08:49:21 51°13.153 2°50.901 -999 0.085532 0.420042 -1.139864
2009-04-06 08:49:26 51°13.155 2°50.903 -999 0.085635 0.420571 -1.139864
2009-04-06 08:49:31 51°13.156 2°50.904 -999 0.085532 0.420055 -1.139864
2009-04-06 08:49:35 51°13.157 2°50.906 -999 0.085532 0.420055 -1.139864
2009-04-06 08:49:41 51°13.158 2°50.907 -999 0.085532 0.420061 -1.139864
2009-04-06 08:49:46 51°13.16 2°50.909 -999 0.085532 0.420061 -1.139864
2009-04-06 08:49:51 51°13.161 2°50.91 -999 0.085532 0.420068 -1.139864
2009-04-06 08:49:55 51°13.162 2°50.911 -999 0.085532 0.420074 -1.139864
2009-04-06 08:50:01 51°13.163 2°50.913 -999 0.085532 0.420081 -1.139864
2009-04-06 08:50:06 51°13.164 2°50.915 -999 0.085532 0.420081 -1.139864
2009-04-06 08:50:11 51°13.164 2°50.916 -999 0.085532 0.420087 -1.139864
2009-04-06 08:50:16 51°13.164 2°50.917 -999 0.085532 0.420093 -1.139864
2009-04-06 08:50:21 51°13.164 2°50.917 -999 0.085532 0.420093 -1.139864
2009-04-06 08:50:27 51°13.164 2°50.918 -999 0.085532 0.420093 -1.174688
2009-04-06 08:50:31 51°13.163 2°50.918 -999 0.085532 0.420087 -1.174688
2009-04-06 08:50:36 51°13.163 2°50.918 -999 0.085532 0.420087 -1.174688
2009-04-06 08:50:41 51°13.163 2°50.918 -999 0.085532 0.420087 -1.139864
2009-04-06 08:50:46 51°13.163 2°50.918 -999 0.085532 0.420087 -1.139864
2009-04-06 08:50:51 51°13.163 2°50.918 -999 0.085532 0.420081 -1.139864
2009-04-06 08:50:56 51°13.163 2°50.918 -999 0.085532 0.420081 -1.139864
2009-04-06 08:51:01 51°13.162 2°50.918 -999 0.085532 0.420074 -1.174688
2009-04-06 08:51:06 51°13.162 2°50.917 -999 0.085532 0.420074 -1.174688
2009-04-06 08:51:11 51°13.162 2°50.917 -999 0.085532 0.420074 -1.139864
2009-04-06 08:51:16 51°13.162 2°50.917 -999 0.085532 0.420074 -1.139864
2009-04-06 08:51:21 51°13.162 2°50.917 -999 0.085532 0.420068 -1.139864
2009-04-06 08:51:26 51°13.162 2°50.917 -999 0.085532 0.420068 -1.139864
2009-04-06 08:51:31 51°13.162 2°50.917 -999 0.085532 0.420074 -1.139864
2009-04-06 08:51:35 51°13.162 2°50.917 -999 0.085532 0.420081 -1.139864
2009-04-06 08:51:41 51°13.162 2°50.917 -999 0.085532 0.420081 -1.139864
2009-04-06 08:51:46 51°13.162 2°50.917 -999 0.085532 0.420093 -1.139864
2009-04-06 08:51:51 51°13.163 2°50.917 -999 0.085532 0.420106 -1.139864
2009-04-06 08:51:56 51°13.163 2°50.917 -999 0.085532 0.420113 -1.139864
2009-04-06 08:52:01 51°13.163 2°50.917 -999 0.085532 0.420132 -1.139864
2009-04-06 08:52:06 51°13.163 2°50.917 -999 0.085532 0.420132 -1.139864
2009-04-06 08:52:11 51°13.163 2°50.916 -999 0.085429 0.419622 -1.139864
2009-04-06 08:52:16 51°13.163 2°50.916 -999 0.085532 0.420164 -1.139864
2009-04-06 08:52:21 51°13.163 2°50.916 -999 0.085429 0.419667 -1.139864
2009-04-06 08:52:26 51°13.164 2°50.916 -999 0.085429 0.419692 -1.139864
2009-04-06 08:52:31 51°13.164 2°50.916 -999 0.085429 0.419724 -1.139864
2009-04-06 08:52:36 51°13.164 2°50.915 -999 0.085429 0.419724 -1.139864
2009-04-06 08:52:41 51°13.164 2°50.915 -999 0.085429 0.419744 -1.139864
2009-04-06 08:52:46 51°13.164 2°50.914 -999 0.085429 0.419769 -1.139864
2009-04-06 08:52:51 51°13.164 2°50.914 -999 0.085429 0.419788 -1.139864
2009-04-06 08:52:56 51°13.164 2°50.914 -999 0.085429 0.419808 -1.139864
2009-04-06 08:53:01 51°13.164 2°50.914 -999 0.085429 0.419827 -1.139864
2009-04-06 08:53:06 51°13.165 2°50.913 -999 0.085429 0.419827 -1.139864
2009-04-06 08:53:11 51°13.165 2°50.912 -999 0.085429 0.419846 -1.139864
2009-04-06 08:53:16 51°13.165 2°50.912 -999 0.085429 0.419859 -1.139864
2009-04-06 08:53:21 51°13.165 2°50.912 -999 0.085429 0.419872 -1.139864
2009-04-06 08:53:26 51°13.165 2°50.912 -999 0.085429 0.419891 -1.139864
2009-04-06 08:53:31 51°13.165 2°50.912 -999 0.085429 0.41991 -1.139864
2009-04-06 08:53:36 51°13.165 2°50.911 -999 0.085429 0.419923 -1.139864
2009-04-06 08:53:41 51°13.165 2°50.911 -999 0.085429 0.419923 -1.139864
2009-04-06 08:53:46 51°13.165 2°50.912 -999 0.085429 0.419936 -1.139864
2009-04-06 08:53:51 51°13.165 2°50.911 -999 0.085429 0.419955 -1.139864
2009-04-06 08:53:56 51°13.165 2°50.911 -999 0.085429 0.419968 -1.139864
2009-04-06 08:54:01 51°13.165 2°50.911 -999 0.085429 0.419974 -1.139864
2009-04-06 08:54:06 51°13.165 2°50.911 -999 0.085429 0.419974 -1.139864
2009-04-06 08:54:11 51°13.165 2°50.911 -999 0.085429 0.419987 -1.139864
2009-04-06 08:54:16 51°13.165 2°50.911 -999 0.085429 0.42 -1.139864
2009-04-06 08:54:21 51°13.165 2°50.911 -999 0.085429 0.420006 -1.139864
2009-04-06 08:54:26 51°13.165 2°50.911 -999 0.085429 0.420019 -1.139864
2009-04-06 08:54:31 51°13.165 2°50.91 -999 0.085429 0.420032 -1.139864
2009-04-06 08:54:36 51°13.165 2°50.911 -999 0.085429 0.420032 -1.139864
2009-04-06 08:54:41 51°13.165 2°50.911 -999 0.085429 0.420045 -1.139864
2009-04-06 08:54:46 51°13.165 2°50.911 -999 0.085429 0.420051 -1.139864
2009-04-06 08:54:51 51°13.165 2°50.911 -999 0.085326 0.419541 -1.139864
2009-04-06 08:54:56 51°13.165 2°50.911 -999 0.085429 0.420077 -1.139864
2009-04-06 08:55:01 51°13.165 2°50.911 -999 0.085326 0.41956 -1.139864
2009-04-06 08:55:06 51°13.165 2°50.911 -999 0.085326 0.41956 -1.139864
2009-04-06 08:55:11 51°13.165 2°50.91 -999 0.085326 0.419579 -1.139864
2009-04-06 08:55:16 51°13.165 2°50.911 -999 0.085326 0.419586 -1.139864
2009-04-06 08:55:21 51°13.165 2°50.911 -999 0.085326 0.419598 -1.139864
2009-04-06 08:55:26 51°13.165 2°50.911 -999 0.085326 0.419611 -1.139864
2009-04-06 08:55:31 51°13.165 2°50.911 -999 0.085326 0.419618 -1.139864
2009-04-06 08:55:36 51°13.165 2°50.911 -999 0.085326 0.419618 -1.139864
2009-04-06 08:55:41 51°13.165 2°50.911 -999 0.085326 0.41963 -1.139864
2009-04-06 08:55:46 51°13.165 2°50.911 -999 0.085326 0.419643 -1.139864
2009-04-06 08:55:51 51°13.165 2°50.911 -999 0.085326 0.41965 -1.139864
2009-04-06 08:55:56 51°13.165 2°50.912 -999 0.085326 0.419662 -1.139864
2009-04-06 08:56:01 51°13.165 2°50.912 -999 0.085326 0.419669 -1.139864
2009-04-06 08:56:06 51°13.164 2°50.912 -999 0.085326 0.419669 -1.139864
2009-04-06 08:56:11 51°13.164 2°50.913 -999 0.085326 0.419675 -1.139864
2009-04-06 08:56:16 51°13.164 2°50.913 -999 0.085326 0.419688 -1.139864
2009-04-06 08:56:21 51°13.164 2°50.913 -999 0.085326 0.419695 -1.139864
2009-04-06 08:56:26 51°13.164 2°50.913 -999 0.085326 0.419707 -1.139864
2009-04-06 08:56:31 51°13.164 2°50.913 -999 0.085326 0.419714 -1.139864
2009-04-06 08:56:36 51°13.164 2°50.913 -999 0.085326 0.419714 -1.139864
2009-04-06 08:56:41 51°13.164 2°50.914 -999 0.085326 0.41972 -1.139864
2009-04-06 08:56:46 51°13.164 2°50.914 -999 0.085326 0.419733 -1.139864
2009-04-06 08:56:51 51°13.164 2°50.914 -999 0.085326 0.419746 -1.139864
2009-04-06 08:56:56 51°13.164 2°50.914 -999 0.085326 0.419759 -1.139864
2009-04-06 08:57:01 51°13.163 2°50.915 -999 0.085326 0.419771 -1.139864
2009-04-06 08:57:06 51°13.163 2°50.915 -999 0.085326 0.419778 -1.139864
2009-04-06 08:57:11 51°13.163 2°50.915 -999 0.085326 0.419778 -1.139864
2009-04-06 08:57:16 51°13.163 2°50.915 -999 0.085326 0.419791 -1.139864
2009-04-06 08:57:21 51°13.163 2°50.915 -999 0.085326 0.419803 -1.139864
2009-04-06 08:57:26 51°13.163 2°50.915 -999 0.085326 0.419816 -1.139864
2009-04-06 08:57:31 51°13.163 2°50.915 -999 0.085326 0.419829 -1.139864
2009-04-06 08:57:36 51°13.163 2°50.916 -999 0.085326 0.419829 -1.139864
2009-04-06 08:57:41 51°13.163 2°50.915 -999 0.085326 0.419836 -1.139864
2009-04-06 08:57:46 51°13.163 2°50.915 -999 0.085223 0.419325 -1.139864
2009-04-06 08:57:51 51°13.163 2°50.915 -999 0.085223 0.419338 -1.139864
2009-04-06 08:57:56 51°13.164 2°50.915 -999 0.085223 0.419351 -1.139864
2009-04-06 08:58:01 51°13.164 2°50.915 -999 0.085223 0.419363 -1.139864
2009-04-06 08:58:06 51°13.164 2°50.915 -999 0.085223 0.419363 -1.139864
2009-04-06 08:58:11 51°13.163 2°50.915 -999 0.085223 0.41937 -1.139864
2009-04-06 08:58:16 51°13.163 2°50.915 -999 0.085223 0.419383 -1.139864
2009-04-06 08:58:21 51°13.163 2°50.915 -999 0.085223 0.419395 -1.139864
2009-04-06 08:58:26 51°13.163 2°50.915 -999 0.085223 0.419402 -1.139864
2009-04-06 08:58:31 51°13.163 2°50.915 -999 0.085223 0.419415 -1.139864
2009-04-06 08:58:36 51°13.164 2°50.915 -999 0.085223 0.419415 -1.139864
2009-04-06 08:58:41 51°13.163 2°50.915 -999 0.085223 0.419428 -1.139864
2009-04-06 08:58:46 51°13.163 2°50.915 -999 0.085223 0.41944 -1.139864
2009-04-06 08:58:51 51°13.164 2°50.915 -999 0.085223 0.419453 -1.139864
2009-04-06 08:58:56 51°13.164 2°50.915 -999 0.085223 0.41946 -1.139864
2009-04-06 08:59:01 51°13.163 2°50.915 -999 0.085223 0.419472 -1.139864
2009-04-06 08:59:06 51°13.163 2°50.916 -999 0.085223 0.419472 -1.139864
2009-04-06 08:59:11 51°13.163 2°50.916 -999 0.085223 0.419492 -1.139864
2009-04-06 08:59:16 51°13.163 2°50.915 -999 0.085223 0.419504 -1.139864
2009-04-06 08:59:21 51°13.163 2°50.916 -999 0.085223 0.419517 -1.139864
2009-04-06 08:59:26 51°13.163 2°50.916 -999 0.085223 0.41953 -1.139864
2009-04-06 08:59:31 51°13.163 2°50.916 -999 0.085223 0.419543 -1.139864
2009-04-06 08:59:36 51°13.163 2°50.915 -999 0.085223 0.419543 -1.139864
2009-04-06 08:59:41 51°13.163 2°50.915 -999 0.085223 0.419556 -1.139864
2009-04-06 08:59:46 51°13.163 2°50.915 -999 0.085223 0.419575 -1.139864
2009-04-06 08:59:51 51°13.163 2°50.915 -999 0.085223 0.419594 -1.139864
2009-04-06 08:59:56 51°13.163 2°50.915 -999 0.08512 0.419083 -1.139864
2009-04-06 09:00:01 51°13.163 2°50.915 -999 0.08512 0.419103 -1.139864
2009-04-06 09:00:06 51°13.163 2°50.915 -999 0.08512 0.419103 -1.139864
2009-04-06 09:00:11 51°13.163 2°50.916 -999 0.08512 0.419115 -1.139864
2009-04-06 09:00:16 51°13.163 2°50.915 -999 0.08512 0.419135 -1.139864
2009-04-06 09:00:21 51°13.163 2°50.915 -999 0.08512 0.419154 -1.139864
2009-04-06 09:00:26 51°13.163 2°50.915 -999 0.08512 0.419167 -1.139864
2009-04-06 09:00:31 51°13.163 2°50.916 -999 0.08512 0.419179 -1.139864
2009-04-06 09:00:36 51°13.163 2°50.916 -999 0.08512 0.419179 -1.139864
2009-04-06 09:00:41 51°13.163 2°50.916 -999 0.08512 0.419199 -1.139864
2009-04-06 09:00:46 51°13.163 2°50.916 -999 0.08512 0.419212 -1.139864
2009-04-06 09:00:51 51°13.163 2°50.916 -999 0.08512 0.419224 -1.139864
2009-04-06 09:00:56 51°13.163 2°50.916 -999 0.08512 0.419244 -1.139864
2009-04-06 09:01:01 51°13.163 2°50.916 -999 0.08512 0.419263 -1.139864
2009-04-06 09:01:06 51°13.163 2°50.916 -999 0.08512 0.419263 -1.139864
2009-04-06 09:01:11 51°13.163 2°50.916 -999 0.08512 0.419276 -1.139864
2009-04-06 09:01:16 51°13.162 2°50.916 -999 0.08512 0.419295 -1.139864
2009-04-06 09:01:21 51°13.162 2°50.917 -999 0.08512 0.419314 -1.139864
2009-04-06 09:01:26 51°13.163 2°50.916 -999 0.08512 0.419333 -1.139864
2009-04-06 09:01:31 51°13.163 2°50.916 -999 0.08512 0.419353 -1.139864
2009-04-06 09:01:36 51°13.163 2°50.915 -999 0.08512 0.419353 -1.139864
2009-04-06 09:01:41 51°13.163 2°50.915 -999 0.08512 0.419365 -1.139864
2009-04-06 09:01:46 51°13.163 2°50.915 -999 0.08512 0.419385 -1.139864
2009-04-06 09:01:51 51°13.163 2°50.915 -999 0.08512 0.419398 -1.139864
2009-04-06 09:01:56 51°13.163 2°50.915 -999 0.085017 0.418893 -1.139864
2009-04-06 09:02:01 51°13.163 2°50.915 -999 0.085017 0.418912 -1.139864
2009-04-06 09:02:06 51°13.163 2°50.915 -999 0.085017 0.418912 -1.139864
2009-04-06 09:02:11 51°13.163 2°50.914 -999 0.085017 0.418925 -1.139864
2009-04-06 09:02:16 51°13.163 2°50.914 -999 0.085017 0.418938 -1.139864
2009-04-06 09:02:21 51°13.163 2°50.914 -999 0.085017 0.418957 -1.139864
2009-04-06 09:02:26 51°13.163 2°50.914 -999 0.085017 0.418963 -1.139864
2009-04-06 09:02:31 51°13.164 2°50.914 -999 0.085017 0.418982 -1.139864
2009-04-06 09:02:36 51°13.164 2°50.914 -999 0.085017 0.418982 -1.139864
2009-04-06 09:02:41 51°13.164 2°50.913 -999 0.085017 0.418995 -1.139864
2009-04-06 09:02:46 51°13.164 2°50.913 -999 0.085017 0.419008 -1.139864
2009-04-06 09:02:51 51°13.164 2°50.913 -999 0.085017 0.419021 -1.139864
2009-04-06 09:02:56 51°13.164 2°50.914 -999 0.085017 0.419034 -1.139864
2009-04-06 09:03:01 51°13.164 2°50.914 -999 0.085017 0.419047 -1.139864
2009-04-06 09:03:06 51°13.164 2°50.913 -999 0.085017 0.419047 -1.139864
2009-04-06 09:03:11 51°13.164 2°50.913 -999 0.085017 0.419066 -1.139864
2009-04-06 09:03:16 51°13.164 2°50.913 -999 0.085017 0.419079 -1.139864
2009-04-06 09:03:21 51°13.164 2°50.913 -999 0.085017 0.419092 -1.139864
2009-04-06 09:03:26 51°13.164 2°50.913 -999 0.085017 0.419104 -1.139864
2009-04-06 09:03:31 51°13.164 2°50.914 -999 0.085017 0.419117 -1.139864
2009-04-06 09:03:36 51°13.164 2°50.914 -999 0.085017 0.419117 -1.139864
2009-04-06 09:03:41 51°13.164 2°50.913 -999 0.085017 0.41913 -1.139864
2009-04-06 09:03:46 51°13.164 2°50.913 -999 0.085017 0.419149 -1.139864
2009-04-06 09:03:51 51°13.165 2°50.913 -999 0.084914 0.418638 -1.139864
2009-04-06 09:03:56 51°13.165 2°50.913 -999 0.084914 0.418651 -1.139864
2009-04-06 09:04:01 51°13.165 2°50.913 -999 0.084914 0.418663 -1.139864
2009-04-06 09:04:06 51°13.164 2°50.914 -999 0.084914 0.418683 -1.139864
2009-04-06 09:04:11 51°13.164 2°50.914 -999 0.084914 0.418683 -1.139864
2009-04-06 09:04:16 51°13.164 2°50.915 -999 0.084914 0.418695 -1.139864
2009-04-06 09:04:21 51°13.164 2°50.915 -999 0.084914 0.418702 -1.139864
2009-04-06 09:04:26 51°13.163 2°50.915 -999 0.084914 0.418721 -1.139864
2009-04-06 09:04:31 51°13.164 2°50.915 -999 0.084914 0.418728 -1.139864
2009-04-06 09:04:36 51°13.164 2°50.914 -999 0.084914 0.418728 -1.139864
2009-04-06 09:04:41 51°13.164 2°50.915 -999 0.084914 0.41874 -1.174688
2009-04-06 09:04:46 51°13.164 2°50.914 -999 0.084914 0.418753 -1.139864
2009-04-06 09:04:51 51°13.164 2°50.915 -999 0.084914 0.418766 -1.139864
2009-04-06 09:04:56 51°13.164 2°50.914 -999 0.084914 0.418772 -1.139864
2009-04-06 09:05:01 51°13.164 2°50.915 -999 0.084914 0.418785 -1.139864
2009-04-06 09:05:06 51°13.164 2°50.915 -999 0.084914 0.418785 -1.139864
2009-04-06 09:05:11 51°13.163 2°50.915 -999 0.084914 0.418805 -1.139864
2009-04-06 09:05:16 51°13.163 2°50.915 -999 0.084914 0.418817 -1.139864
2009-04-06 09:05:21 51°13.163 2°50.916 -999 0.084914 0.41883 -1.139864
2009-04-06 09:05:26 51°13.163 2°50.916 -999 0.084914 0.418843 -1.139864
2009-04-06 09:05:31 51°13.163 2°50.916 -999 0.084914 0.418856 -1.139864
2009-04-06 09:05:36 51°13.163 2°50.916 -999 0.084914 0.418856 -1.139864
2009-04-06 09:05:41 51°13.163 2°50.916 -999 0.084914 0.418869 -1.139864
2009-04-06 09:05:46 51°13.163 2°50.916 -999 0.084914 0.418882 -1.139864
2009-04-06 09:05:51 51°13.163 2°50.915 -999 0.084914 0.418894 -1.139864
2009-04-06 09:05:56 51°13.164 2°50.915 -999 0.084914 0.418907 -1.139864
2009-04-06 09:06:01 51°13.164 2°50.915 -999 0.084811 0.418402 -1.139864
2009-04-06 09:06:06 51°13.164 2°50.915 -999 0.084811 0.418402 -1.139864
2009-04-06 09:06:11 51°13.164 2°50.915 -999 0.084811 0.418415 -1.139864
2009-04-06 09:06:16 51°13.164 2°50.915 -999 0.084811 0.418427 -1.139864
2009-04-06 09:06:21 51°13.163 2°50.916 -999 0.084811 0.41844 -1.139864
2009-04-06 09:06:26 51°13.163 2°50.916 -999 0.084811 0.418453 -1.139864
2009-04-06 09:06:31 51°13.164 2°50.916 -999 0.084811 0.418472 -1.139864
2009-04-06 09:06:36 51°13.163 2°50.916 -999 0.084811 0.418472 -1.139864
2009-04-06 09:06:41 51°13.164 2°50.916 -999 0.084811 0.418485 -1.139864
2009-04-06 09:06:46 51°13.163 2°50.916 -999 0.084811 0.418498 -1.139864
2009-04-06 09:06:51 51°13.163 2°50.916 -999 0.084811 0.418517 -1.139864
2009-04-06 09:06:56 51°13.163 2°50.916 -999 0.084811 0.418537 -1.139864
2009-04-06 09:07:01 51°13.163 2°50.916 -999 0.084811 0.418549 -1.139864
2009-04-06 09:07:06 51°13.163 2°50.916 -999 0.084811 0.418549 -1.139864
2009-04-06 09:07:11 51°13.163 2°50.916 -999 0.084811 0.418569 -1.139864
2009-04-06 09:07:16 51°13.163 2°50.916 -999 0.084811 0.418581 -1.139864
2009-04-06 09:07:21 51°13.163 2°50.916 -999 0.084811 0.418601 -1.139864
2009-04-06 09:07:26 51°13.163 2°50.916 -999 0.084811 0.418614 -1.139864
2009-04-06 09:07:31 51°13.163 2°50.915 -999 0.084811 0.418633 -1.139864
2009-04-06 09:07:36 51°13.163 2°50.916 -999 0.084811 0.418646 -1.139864
2009-04-06 09:07:41 51°13.163 2°50.916 -999 0.084811 0.418646 -1.139864
2009-04-06 09:07:46 51°13.163 2°50.916 -999 0.084811 0.418659 -1.139864
2009-04-06 09:07:51 51°13.163 2°50.916 -999 0.084811 0.418671 -1.139864
2009-04-06 09:07:56 51°13.163 2°50.916 -999 0.084811 0.418684 -1.139864
2009-04-06 09:08:01 51°13.164 2°50.915 -999 0.084811 0.418697 -1.139864
2009-04-06 09:08:06 51°13.164 2°50.915 -999 0.084811 0.418697 -1.139864
2009-04-06 09:08:11 51°13.163 2°50.916 -999 0.084811 0.41871 -1.139864
2009-04-06 09:08:16 51°13.163 2°50.916 -999 0.084811 0.418723 -1.139864
2009-04-06 09:08:21 51°13.163 2°50.917 -999 0.084811 0.418736 -1.139864
2009-04-06 09:08:26 51°13.162 2°50.917 -999 0.084708 0.418223 -1.139864
2009-04-06 09:08:31 51°13.162 2°50.917 -999 0.084708 0.418236 -1.139864
2009-04-06 09:08:36 51°13.163 2°50.917 -999 0.084708 0.418236 -1.139864
2009-04-06 09:08:41 51°13.162 2°50.917 -999 0.084708 0.418249 -1.139864
2009-04-06 09:08:46 51°13.162 2°50.917 -999 0.084708 0.418262 -1.139864
2009-04-06 09:08:51 51°13.163 2°50.916 -999 0.084708 0.418281 -1.139864
2009-04-06 09:08:56 51°13.163 2°50.916 -999 0.084708 0.418294 -1.139864
2009-04-06 09:09:01 51°13.163 2°50.916 -999 0.084708 0.418307 -1.139864
2009-04-06 09:09:06 51°13.163 2°50.916 -999 0.084708 0.418307 -1.139864
2009-04-06 09:09:11 51°13.163 2°50.916 -999 0.084708 0.41832 -1.139864
2009-04-06 09:09:16 51°13.163 2°50.916 -999 0.084708 0.418332 -1.139864
2009-04-06 09:09:21 51°13.163 2°50.916 -999 0.084708 0.418345 -1.139864
2009-04-06 09:09:26 51°13.163 2°50.916 -999 0.084708 0.418365 -1.139864
2009-04-06 09:09:31 51°13.163 2°50.916 -999 0.084708 0.418371 -1.139864
2009-04-06 09:09:36 51°13.163 2°50.916 -999 0.084708 0.41839 -1.139864
2009-04-06 09:09:41 51°13.163 2°50.916 -999 0.084708 0.41839 -1.139864
2009-04-06 09:09:46 51°13.163 2°50.916 -999 0.084708 0.418403 -1.139864
2009-04-06 09:09:51 51°13.163 2°50.916 -999 0.084708 0.418416 -1.139864
2009-04-06 09:09:56 51°13.163 2°50.916 -999 0.084708 0.418435 -1.139864
2009-04-06 09:10:01 51°13.163 2°50.916 -999 0.084708 0.418442 -1.139864
2009-04-06 09:10:06 51°13.163 2°50.916 -999 0.084708 0.418442 -1.139864
2009-04-06 09:10:11 51°13.163 2°50.916 -999 0.084708 0.418461 -1.139864
2009-04-06 09:10:16 51°13.164 2°50.916 -999 0.084708 0.418467 -1.174688
2009-04-06 09:10:21 51°13.163 2°50.916 -999 0.084708 0.41848 -1.139864
2009-04-06 09:10:26 51°13.163 2°50.916 -999 0.084708 0.418493 -1.139864
2009-04-06 09:10:31 51°13.163 2°50.916 -999 0.084708 0.4185 -1.139864
2009-04-06 09:10:36 51°13.163 2°50.916 -999 0.084708 0.4185 -1.139864
2009-04-06 09:10:41 51°13.164 2°50.916 -999 0.084708 0.418512 -1.139864
2009-04-06 09:10:46 51°13.163 2°50.916 -999 0.084708 0.418525 -1.139864
2009-04-06 09:10:51 51°13.164 2°50.916 -999 0.084708 0.418532 -1.139864
2009-04-06 09:10:56 51°13.163 2°50.916 -999 0.084708 0.418538 -1.139864
2009-04-06 09:11:01 51°13.163 2°50.916 -999 0.084708 0.418551 -1.174688
2009-04-06 09:11:06 51°13.163 2°50.917 -999 0.084708 0.418551 -1.174688
2009-04-06 09:11:11 51°13.163 2°50.917 -999 0.084708 0.418557 -1.139864
2009-04-06 09:11:16 51°13.163 2°50.916 -999 0.084708 0.41857 -1.139864
2009-04-06 09:11:21 51°13.164 2°50.916 -999 0.084708 0.418583 -1.139864
2009-04-06 09:11:26 51°13.164 2°50.916 -999 0.084708 0.41859 -1.139864
2009-04-06 09:11:31 51°13.163 2°50.916 -999 0.084708 0.418602 -1.139864
2009-04-06 09:11:36 51°13.163 2°50.916 -999 0.084708 0.418602 -1.139864
2009-04-06 09:11:41 51°13.164 2°50.916 -999 0.084708 0.418615 -1.139864
2009-04-06 09:11:46 51°13.164 2°50.916 -999 0.084708 0.418628 -1.139864
2009-04-06 09:11:51 51°13.163 2°50.916 -999 0.084708 0.418647 -1.139864
2009-04-06 09:11:56 51°13.163 2°50.916 -999 0.084708 0.41866 -1.139864
2009-04-06 09:12:01 51°13.163 2°50.917 -999 0.084708 0.418673 -1.139864
2009-04-06 09:12:06 51°13.163 2°50.917 -999 0.084708 0.418673 -1.139864
2009-04-06 09:12:11 51°13.163 2°50.916 -999 0.084708 0.418686 -1.139864
2009-04-06 09:12:16 51°13.163 2°50.916 -999 0.084708 0.418699 -1.139864
2009-04-06 09:12:21 51°13.163 2°50.916 -999 0.084606 0.418186 -1.139864
2009-04-06 09:12:26 51°13.163 2°50.916 -999 0.084606 0.418199 -1.139864
2009-04-06 09:12:31 51°13.163 2°50.916 -999 0.084606 0.418212 -1.139864
2009-04-06 09:12:36 51°13.163 2°50.917 -999 0.084606 0.418212 -1.139864
2009-04-06 09:12:41 51°13.162 2°50.917 -999 0.084606 0.418225 -1.139864
2009-04-06 09:12:47 51°13.162 2°50.917 -999 0.084606 0.418238 -1.174688
2009-04-06 09:12:51 51°13.162 2°50.917 -999 0.084606 0.41825 -1.139864
2009-04-06 09:12:56 51°13.162 2°50.917 -999 0.084606 0.418263 -1.139864
2009-04-06 09:13:01 51°13.162 2°50.917 -999 0.084606 0.418276 -1.139864
2009-04-06 09:13:06 51°13.162 2°50.917 -999 0.084606 0.418276 -1.139864
2009-04-06 09:13:11 51°13.162 2°50.917 -999 0.084606 0.418295 -1.174688
2009-04-06 09:13:15 51°13.162 2°50.917 -999 0.084606 0.418308 -1.139864
2009-04-06 09:13:21 51°13.162 2°50.917 -999 0.084606 0.418328 -1.139864
2009-04-06 09:13:26 51°13.162 2°50.917 -999 0.084606 0.418334 -1.139864
2009-04-06 09:13:31 51°13.162 2°50.917 -999 0.084606 0.418347 -1.139864
2009-04-06 09:13:36 51°13.162 2°50.917 -999 0.084606 0.418347 -1.139864
2009-04-06 09:13:41 51°13.162 2°50.917 -999 0.084606 0.41836 -1.139864
2009-04-06 09:13:46 51°13.162 2°50.917 -999 0.084606 0.418379 -1.139864
2009-04-06 09:13:51 51°13.162 2°50.917 -999 0.084606 0.418385 -1.174688
2009-04-06 09:13:55 51°13.162 2°50.917 -999 0.084606 0.418405 -1.139864
2009-04-06 09:14:01 51°13.162 2°50.917 -999 0.084606 0.418418 -1.139864
2009-04-06 09:14:06 51°13.162 2°50.917 -999 0.084606 0.418418 -1.139864
2009-04-06 09:14:11 51°13.162 2°50.918 -999 0.084606 0.418437 -1.139864
2009-04-06 09:14:16 51°13.162 2°50.918 -999 0.084606 0.41845 -1.174688
2009-04-06 09:14:21 51°13.162 2°50.918 -999 0.084606 0.418463 -1.139864
2009-04-06 09:14:26 51°13.162 2°50.918 -999 0.084606 0.418476 -1.139864
2009-04-06 09:14:31 51°13.161 2°50.918 -999 0.084606 0.418495 -1.139864
2009-04-06 09:14:35 51°13.161 2°50.919 -999 0.084606 0.418495 -1.139864
2009-04-06 09:14:41 51°13.161 2°50.919 -999 0.084606 0.418508 -1.139864
2009-04-06 09:14:46 51°13.161 2°50.919 -999 0.084606 0.418521 -1.139864
2009-04-06 09:14:51 51°13.161 2°50.919 -999 0.084606 0.418527 -1.139864
2009-04-06 09:14:56 51°13.161 2°50.919 -999 0.084606 0.418546 -1.139864
2009-04-06 09:15:01 51°13.161 2°50.92 -999 0.084606 0.418566 -1.139864
2009-04-06 09:15:06 51°13.161 2°50.92 -999 0.084606 0.418572 -1.139864
2009-04-06 09:15:11 51°13.161 2°50.921 -999 0.084606 0.418572 -1.139864
2009-04-06 09:15:16 51°13.161 2°50.921 -999 0.084606 0.418591 -1.139864
2009-04-06 09:15:21 51°13.161 2°50.921 -999 0.084606 0.418604 -1.139864
2009-04-06 09:15:26 51°13.16 2°50.921 -999 0.084606 0.418617 -1.139864
2009-04-06 09:15:31 51°13.16 2°50.921 -999 0.084606 0.418637 -1.139864
2009-04-06 09:15:36 51°13.16 2°50.922 -999 0.084606 0.418637 -1.139864
2009-04-06 09:15:41 51°13.16 2°50.922 -999 0.084606 0.418649 -1.139864
2009-04-06 09:15:46 51°13.16 2°50.922 -999 0.084606 0.418662 -1.139864
2009-04-06 09:15:51 51°13.159 2°50.922 -999 0.084606 0.418675 -1.139864
2009-04-06 09:15:56 51°13.159 2°50.922 -999 0.084606 0.418695 -1.139864
2009-04-06 09:16:01 51°13.159 2°50.922 -999 0.084606 0.418714 -1.139864
2009-04-06 09:16:06 51°13.159 2°50.922 -999 0.084606 0.418714 -1.139864
2009-04-06 09:16:11 51°13.159 2°50.922 -999 0.084606 0.41872 -1.139864
2009-04-06 09:16:16 51°13.158 2°50.922 -999 0.084606 0.41874 -1.139864
2009-04-06 09:16:21 51°13.158 2°50.922 -999 0.084606 0.418753 -1.139864
2009-04-06 09:16:26 51°13.158 2°50.923 -999 0.084606 0.418766 -1.139864
2009-04-06 09:16:31 51°13.158 2°50.923 -999 0.084606 0.418778 -1.139864
2009-04-06 09:16:36 51°13.158 2°50.923 -999 0.084606 0.418778 -1.139864
2009-04-06 09:16:41 51°13.158 2°50.923 -999 0.084606 0.418791 -1.139864
2009-04-06 09:16:46 51°13.158 2°50.923 -999 0.084606 0.418811 -1.139864
2009-04-06 09:16:51 51°13.157 2°50.923 -999 0.084606 0.418824 -1.139864
2009-04-06 09:16:56 51°13.157 2°50.923 -999 0.084606 0.418836 -1.174688
2009-04-06 09:17:01 51°13.157 2°50.924 -999 0.084606 0.418849 -1.139864
2009-04-06 09:17:06 51°13.157 2°50.924 -999 0.084606 0.418849 -1.139864
2009-04-06 09:17:11 51°13.157 2°50.924 -999 0.084606 0.418869 -1.139864
2009-04-06 09:17:16 51°13.157 2°50.924 -999 0.084606 0.418882 -1.139864
2009-04-06 09:17:21 51°13.157 2°50.924 -999 0.084606 0.418888 -1.139864
2009-04-06 09:17:26 51°13.157 2°50.924 -999 0.084606 0.418901 -1.139864
2009-04-06 09:17:31 51°13.156 2°50.924 -999 0.084606 0.41892 -1.139864
2009-04-06 09:17:36 51°13.156 2°50.925 -999 0.084606 0.41892 -1.139864
2009-04-06 09:17:41 51°13.156 2°50.925 -999 0.084606 0.418927 -1.139864
2009-04-06 09:17:46 51°13.156 2°50.925 -999 0.084606 0.41894 -1.139864
2009-04-06 09:17:51 51°13.156 2°50.925 -999 0.084606 0.418953 -1.139864
2009-04-06 09:17:56 51°13.156 2°50.925 -999 0.084606 0.418966 -1.139864
2009-04-06 09:18:01 51°13.156 2°50.925 -999 0.084606 0.418978 -1.139864
2009-04-06 09:18:06 51°13.156 2°50.925 -999 0.084606 0.418978 -1.139864
2009-04-06 09:18:11 51°13.156 2°50.925 -999 0.084606 0.418991 -1.139864
2009-04-06 09:18:16 51°13.156 2°50.924 -999 0.084606 0.418998 -1.139864
2009-04-06 09:18:21 51°13.156 2°50.924 -999 0.084606 0.419011 -1.139864
2009-04-06 09:18:26 51°13.156 2°50.925 -999 0.084606 0.419017 -1.174688
2009-04-06 09:18:31 51°13.156 2°50.925 -999 0.084606 0.419037 -1.139864
2009-04-06 09:18:36 51°13.156 2°50.925 -999 0.084606 0.419049 -1.139864
2009-04-06 09:18:41 51°13.156 2°50.925 -999 0.084606 0.419049 -1.139864
2009-04-06 09:18:46 51°13.156 2°50.925 -999 0.084606 0.419062 -1.139864
2009-04-06 09:18:51 51°13.156 2°50.925 -999 0.084606 0.419075 -1.139864
2009-04-06 09:18:55 51°13.156 2°50.925 -999 0.084503 0.418568 -1.139864
2009-04-06 09:19:01 51°13.156 2°50.925 -999 0.084606 0.419108 -1.139864
2009-04-06 09:19:06 51°13.156 2°50.924 -999 0.084606 0.419108 -1.139864
2009-04-06 09:19:11 51°13.156 2°50.924 -999 0.084606 0.419127 -1.139864
2009-04-06 09:19:16 51°13.156 2°50.924 -999 0.084503 0.418613 -1.139864
2009-04-06 09:19:21 51°13.156 2°50.924 -999 0.084503 0.418626 -1.139864
2009-04-06 09:19:26 51°13.156 2°50.924 -999 0.084503 0.418639 -1.139864
2009-04-06 09:19:31 51°13.157 2°50.924 -999 0.084503 0.418652 -1.139864
2009-04-06 09:19:35 51°13.156 2°50.924 -999 0.084503 0.418652 -1.139864
2009-04-06 09:19:41 51°13.156 2°50.924 -999 0.084503 0.418671 -1.139864
2009-04-06 09:19:46 51°13.156 2°50.924 -999 0.084503 0.418684 -1.139864
2009-04-06 09:19:51 51°13.157 2°50.923 -999 0.084503 0.418697 -1.139864
2009-04-06 09:19:56 51°13.157 2°50.923 -999 0.084606 0.419237 -1.174688
2009-04-06 09:20:01 51°13.157 2°50.923 -999 0.084503 0.418723 -1.174688
2009-04-06 09:20:06 51°13.157 2°50.923 -999 0.084503 0.418723 -1.174688
2009-04-06 09:20:11 51°13.157 2°50.924 -999 0.084503 0.418742 -1.139864
2009-04-06 09:20:15 51°13.156 2°50.924 -999 0.084503 0.418755 -1.139864
2009-04-06 09:20:21 51°13.156 2°50.924 -999 0.084503 0.418768 -1.139864
2009-04-06 09:20:26 51°13.156 2°50.924 -999 0.084503 0.418781 -1.139864
2009-04-06 09:20:31 51°13.156 2°50.925 -999 0.084503 0.418794 -1.139864
2009-04-06 09:20:36 51°13.156 2°50.925 -999 0.084503 0.418807 -1.174688
2009-04-06 09:20:41 51°13.156 2°50.925 -999 0.084503 0.418807 -1.174688
2009-04-06 09:20:46 51°13.156 2°50.925 -999 0.084503 0.41882 -1.139864
2009-04-06 09:20:51 51°13.156 2°50.925 -999 0.084503 0.418833 -1.139864
2009-04-06 09:20:56 51°13.156 2°50.924 -999 0.084503 0.418839 -1.139864
2009-04-06 09:21:01 51°13.157 2°50.924 -999 0.084503 0.418852 -1.139864
2009-04-06 09:21:06 51°13.157 2°50.924 -999 0.084503 0.418852 -1.139864
2009-04-06 09:21:11 51°13.157 2°50.924 -999 0.084503 0.418865 -1.139864
2009-04-06 09:21:16 51°13.157 2°50.924 -999 0.084503 0.418871 -1.139864
2009-04-06 09:21:21 51°13.156 2°50.924 -999 0.084503 0.418891 -1.139864
2009-04-06 09:21:26 51°13.156 2°50.925 -999 0.084503 0.418897 -1.139864
2009-04-06 09:21:31 51°13.156 2°50.925 -999 0.084503 0.418917 -1.139864
2009-04-06 09:21:36 51°13.156 2°50.925 -999 0.084503 0.418917 -1.139864
2009-04-06 09:21:41 51°13.156 2°50.925 -999 0.084503 0.418923 -1.174688
2009-04-06 09:21:46 51°13.156 2°50.924 -999 0.084503 0.418936 -1.139864
2009-04-06 09:21:51 51°13.156 2°50.924 -999 0.084503 0.418955 -1.139864
2009-04-06 09:21:56 51°13.156 2°50.924 -999 0.084503 0.418962 -1.174688
2009-04-06 09:22:01 51°13.156 2°50.925 -999 0.084503 0.418975 -1.139864
2009-04-06 09:22:06 51°13.155 2°50.926 -999 0.084503 0.418988 -1.139864
2009-04-06 09:22:11 51°13.155 2°50.926 -999 0.084503 0.418988 -1.139864
2009-04-06 09:22:16 51°13.155 2°50.926 -999 0.084503 0.419007 -1.139864
2009-04-06 09:22:21 51°13.155 2°50.927 -999 0.084503 0.419014 -1.139864
2009-04-06 09:22:26 51°13.155 2°50.927 -999 0.084606 0.419554 -1.139864
2009-04-06 09:22:31 51°13.155 2°50.926 -999 0.084503 0.41904 -1.139864
2009-04-06 09:22:36 51°13.155 2°50.926 -999 0.084503 0.41904 -1.139864
2009-04-06 09:22:41 51°13.155 2°50.926 -999 0.084503 0.419052 -1.139864
2009-04-06 09:22:46 51°13.155 2°50.925 -999 0.084606 0.419593 -1.139864
2009-04-06 09:22:51 51°13.156 2°50.925 -999 0.084503 0.419078 -1.174688
2009-04-06 09:22:56 51°13.156 2°50.925 -999 0.084606 0.419619 -1.139864
2009-04-06 09:23:01 51°13.156 2°50.924 -999 0.084606 0.419625 -1.139864
2009-04-06 09:23:06 51°13.157 2°50.923 -999 0.084606 0.419625 -1.139864
2009-04-06 09:23:11 51°13.156 2°50.924 -999 0.084503 0.419111 -1.139864
2009-04-06 09:23:16 51°13.156 2°50.925 -999 0.084606 0.419651 -1.139864
2009-04-06 09:23:21 51°13.155 2°50.926 -999 0.084503 0.41913 -1.174688
2009-04-06 09:23:26 51°13.155 2°50.927 -999 0.084606 0.419671 -1.139864
2009-04-06 09:23:31 51°13.154 2°50.927 -999 0.084606 0.419684 -1.139864
2009-04-06 09:23:36 51°13.154 2°50.927 -999 0.084606 0.419684 -1.139864
2009-04-06 09:23:41 51°13.154 2°50.927 -999 0.084503 0.419169 -1.174688
2009-04-06 09:23:46 51°13.154 2°50.927 -999 0.084606 0.41971 -1.139864
2009-04-06 09:23:51 51°13.154 2°50.927 -999 0.084606 0.419723 -1.139864
2009-04-06 09:23:56 51°13.154 2°50.927 -999 0.084606 0.419736 -1.174688
2009-04-06 09:24:01 51°13.155 2°50.927 -999 0.084606 0.419748 -1.139864
2009-04-06 09:24:07 51°13.155 2°50.926 -999 0.084606 0.419755 -1.139864
2009-04-06 09:24:11 51°13.155 2°50.926 -999 0.084606 0.419755 -1.139864
2009-04-06 09:24:16 51°13.155 2°50.926 -999 0.084606 0.419768 -1.139864
2009-04-06 09:24:21 51°13.155 2°50.926 -999 0.084606 0.419781 -1.174688
2009-04-06 09:24:26 51°13.155 2°50.927 -999 0.084606 0.4198 -1.139864
2009-04-06 09:24:31 51°13.155 2°50.927 -999 0.084606 0.419807 -1.139864
2009-04-06 09:24:35 51°13.154 2°50.927 -999 0.084606 0.419807 -1.139864
2009-04-06 09:24:41 51°13.154 2°50.927 -999 0.084606 0.419826 -1.139864
2009-04-06 09:24:46 51°13.155 2°50.926 -999 0.084606 0.419839 -1.139864
2009-04-06 09:24:51 51°13.155 2°50.925 -999 0.084606 0.419852 -1.139864
2009-04-06 09:24:56 51°13.155 2°50.926 -999 0.084606 0.419865 -1.139864
2009-04-06 09:25:01 51°13.155 2°50.926 -999 0.084606 0.419878 -1.139864
2009-04-06 09:25:06 51°13.156 2°50.925 -999 0.084606 0.419878 -1.139864
2009-04-06 09:25:11 51°13.156 2°50.925 -999 0.084606 0.419891 -1.174688
2009-04-06 09:25:15 51°13.156 2°50.925 -999 0.084606 0.419904 -1.139864
2009-04-06 09:25:21 51°13.155 2°50.926 -999 0.084606 0.419917 -1.174688
2009-04-06 09:25:26 51°13.155 2°50.926 -999 0.084606 0.419924 -1.139864
2009-04-06 09:25:31 51°13.155 2°50.927 -999 0.084606 0.419937 -1.139864
2009-04-06 09:25:36 51°13.154 2°50.927 -999 0.084606 0.41995 -1.174688
2009-04-06 09:25:41 51°13.155 2°50.927 -999 0.084606 0.41995 -1.174688
2009-04-06 09:25:46 51°13.155 2°50.927 -999 0.084606 0.419963 -1.139864
2009-04-06 09:25:51 51°13.155 2°50.927 -999 0.084606 0.419969 -1.139864
2009-04-06 09:25:55 51°13.155 2°50.926 -999 0.084606 0.419982 -1.139864
2009-04-06 09:26:01 51°13.155 2°50.926 -999 0.084606 0.419995 -1.139864
2009-04-06 09:26:06 51°13.155 2°50.926 -999 0.084606 0.420008 -1.139864
2009-04-06 09:26:11 51°13.155 2°50.926 -999 0.084606 0.420008 -1.139864
2009-04-06 09:26:16 51°13.155 2°50.926 -999 0.084606 0.420021 -1.139864
2009-04-06 09:26:21 51°13.155 2°50.926 -999 0.084606 0.420034 -1.139864
2009-04-06 09:26:26 51°13.155 2°50.927 -999 0.084606 0.420047 -1.139864
2009-04-06 09:26:31 51°13.155 2°50.927 -999 0.084606 0.42006 -1.174688
2009-04-06 09:26:36 51°13.155 2°50.927 -999 0.084606 0.42006 -1.174688
2009-04-06 09:26:41 51°13.155 2°50.926 -999 0.084606 0.42008 -1.174688
2009-04-06 09:26:46 51°13.155 2°50.927 -999 0.084606 0.420093 -1.139864
2009-04-06 09:26:51 51°13.155 2°50.927 -999 0.084606 0.420106 -1.174688
2009-04-06 09:26:56 51°13.155 2°50.927 -999 0.084606 0.420125 -1.174688
2009-04-06 09:27:01 51°13.155 2°50.927 -999 0.084606 0.420132 -1.139864
2009-04-06 09:27:06 51°13.154 2°50.927 -999 0.084606 0.420132 -1.139864
2009-04-06 09:27:11 51°13.154 2°50.927 -999 0.084606 0.420151 -1.139864
2009-04-06 09:27:16 51°13.154 2°50.927 -999 0.084606 0.420164 -1.139864
2009-04-06 09:27:21 51°13.155 2°50.927 -999 0.084606 0.420177 -1.139864
2009-04-06 09:27:26 51°13.154 2°50.927 -999 0.084606 0.42019 -1.139864
2009-04-06 09:27:31 51°13.154 2°50.927 -999 0.084606 0.420203 -1.139864
2009-04-06 09:27:36 51°13.155 2°50.927 -999 0.084606 0.420216 -1.139864
2009-04-06 09:27:41 51°13.155 2°50.926 -999 0.084606 0.420216 -1.139864
2009-04-06 09:27:46 51°13.155 2°50.927 -999 0.084606 0.420229 -1.139864
2009-04-06 09:27:51 51°13.155 2°50.927 -999 0.084606 0.420249 -1.139864
2009-04-06 09:27:56 51°13.154 2°50.927 -999 0.084606 0.420255 -1.139864
2009-04-06 09:28:01 51°13.154 2°50.928 -999 0.084606 0.420268 -1.139864
2009-04-06 09:28:06 51°13.154 2°50.928 -999 0.084606 0.420268 -1.139864
2009-04-06 09:28:11 51°13.154 2°50.928 -999 0.084606 0.420281 -1.174688
2009-04-06 09:28:16 51°13.154 2°50.928 -999 0.084606 0.420301 -1.139864
2009-04-06 09:28:21 51°13.154 2°50.928 -999 0.084606 0.420314 -1.139864
2009-04-06 09:28:26 51°13.155 2°50.928 -999 0.084606 0.420327 -1.139864
2009-04-06 09:28:31 51°13.155 2°50.928 -999 0.084606 0.42034 -1.139864
2009-04-06 09:28:36 51°13.155 2°50.927 -999 0.084606 0.42034 -1.139864
2009-04-06 09:28:41 51°13.155 2°50.927 -999 0.084606 0.420353 -1.139864
2009-04-06 09:28:47 51°13.155 2°50.927 -999 0.084606 0.420366 -1.139864
2009-04-06 09:28:51 51°13.155 2°50.927 -999 0.084606 0.420379 -1.139864
2009-04-06 09:28:56 51°13.155 2°50.927 -999 0.084606 0.420392 -1.139864
2009-04-06 09:29:01 51°13.155 2°50.927 -999 0.084606 0.420398 -1.174688
2009-04-06 09:29:07 51°13.156 2°50.927 -999 0.084606 0.420411 -1.139864
2009-04-06 09:29:11 51°13.156 2°50.927 -999 0.084606 0.420411 -1.139864
2009-04-06 09:29:16 51°13.156 2°50.927 -999 0.084606 0.420424 -1.174688
2009-04-06 09:29:21 51°13.156 2°50.927 -999 0.084606 0.420431 -1.139864
2009-04-06 09:29:26 51°13.156 2°50.927 -999 0.084606 0.420444 -1.139864
2009-04-06 09:29:31 51°13.156 2°50.927 -999 0.084606 0.420463 -1.139864
2009-04-06 09:29:36 51°13.156 2°50.927 -999 0.084606 0.420463 -1.139864
2009-04-06 09:29:41 51°13.156 2°50.927 -999 0.084606 0.420476 -1.174688
2009-04-06 09:29:46 51°13.156 2°50.926 -999 0.084606 0.420483 -1.174688
2009-04-06 09:29:51 51°13.156 2°50.926 -999 0.084606 0.420496 -1.139864
2009-04-06 09:29:56 51°13.157 2°50.926 -999 0.084606 0.420509 -1.139864
2009-04-06 09:30:01 51°13.156 2°50.926 -999 0.084606 0.420522 -1.139864
2009-04-06 09:30:06 51°13.157 2°50.926 -999 0.084606 0.420522 -1.139864
2009-04-06 09:30:11 51°13.157 2°50.926 -999 0.084606 0.420541 -1.139864
2009-04-06 09:30:16 51°13.157 2°50.926 -999 0.084606 0.420554 -1.174688
2009-04-06 09:30:21 51°13.157 2°50.926 -999 0.084606 0.420568 -1.139864
2009-04-06 09:30:26 51°13.157 2°50.926 -999 0.084606 0.420581 -1.139864
2009-04-06 09:30:31 51°13.157 2°50.926 -999 0.084606 0.420594 -1.139864
2009-04-06 09:30:35 51°13.157 2°50.926 -999 0.084606 0.420594 -1.139864
2009-04-06 09:30:41 51°13.157 2°50.926 -999 0.084606 0.420607 -1.139864
2009-04-06 09:30:46 51°13.157 2°50.926 -999 0.084606 0.42062 -1.139864
2009-04-06 09:30:51 51°13.157 2°50.926 -999 0.084606 0.420633 -1.174688
2009-04-06 09:30:56 51°13.157 2°50.926 -999 0.084606 0.420646 -1.139864
2009-04-06 09:31:01 51°13.157 2°50.926 -999 0.084606 0.420659 -1.139864
2009-04-06 09:31:06 51°13.157 2°50.926 -999 0.084606 0.420672 -1.174688
2009-04-06 09:31:11 51°13.157 2°50.926 -999 0.084606 0.420672 -1.174688
2009-04-06 09:31:15 51°13.157 2°50.926 -999 0.084606 0.420678 -1.139864
2009-04-06 09:31:21 51°13.157 2°50.926 -999 0.084606 0.420691 -1.139864
2009-04-06 09:31:26 51°13.157 2°50.926 -999 0.084606 0.420704 -1.174688
2009-04-06 09:31:31 51°13.157 2°50.926 -999 0.084606 0.420724 -1.174688
2009-04-06 09:31:36 51°13.157 2°50.926 -999 0.084606 0.420724 -1.174688
2009-04-06 09:31:41 51°13.157 2°50.926 -999 0.084606 0.42073 -1.139864
2009-04-06 09:31:46 51°13.157 2°50.926 -999 0.084606 0.420744 -1.139864
2009-04-06 09:31:51 51°13.157 2°50.926 -999 0.084503 0.420228 -1.139864
2009-04-06 09:31:55 51°13.157 2°50.925 -999 0.084606 0.42077 -1.139864
2009-04-06 09:32:01 51°13.158 2°50.925 -999 0.084606 0.420783 -1.174688
2009-04-06 09:32:06 51°13.158 2°50.925 -999 0.084606 0.420783 -1.174688
2009-04-06 09:32:11 51°13.157 2°50.925 -999 0.084606 0.420789 -1.139864
2009-04-06 09:32:16 51°13.157 2°50.925 -999 0.084606 0.420802 -1.174688
2009-04-06 09:32:21 51°13.157 2°50.926 -999 0.084503 0.420286 -1.139864
2009-04-06 09:32:26 51°13.157 2°50.926 -999 0.084503 0.420306 -1.139864
2009-04-06 09:32:31 51°13.157 2°50.926 -999 0.084503 0.420319 -1.139864
2009-04-06 09:32:36 51°13.157 2°50.926 -999 0.084503 0.420319 -1.139864
2009-04-06 09:32:41 51°13.157 2°50.926 -999 0.084503 0.420325 -1.139864
2009-04-06 09:32:46 51°13.157 2°50.926 -999 0.084503 0.420338 -1.139864
2009-04-06 09:32:51 51°13.157 2°50.926 -999 0.084503 0.420351 -1.139864
2009-04-06 09:32:56 51°13.157 2°50.926 -999 0.084503 0.420371 -1.139864
2009-04-06 09:33:01 51°13.157 2°50.927 -999 0.084503 0.420384 -1.139864
2009-04-06 09:33:06 51°13.157 2°50.926 -999 0.084503 0.42039 -1.139864
2009-04-06 09:33:11 51°13.157 2°50.926 -999 0.084503 0.42039 -1.139864
2009-04-06 09:33:16 51°13.157 2°50.926 -999 0.084503 0.42041 -1.139864
2009-04-06 09:33:21 51°13.157 2°50.926 -999 0.084503 0.420417 -1.174688
2009-04-06 09:33:27 51°13.157 2°50.926 -999 0.084503 0.420436 -1.139864
2009-04-06 09:33:31 51°13.157 2°50.926 -999 0.084503 0.420443 -1.139864
2009-04-06 09:33:36 51°13.157 2°50.925 -999 0.084503 0.420443 -1.139864
2009-04-06 09:33:41 51°13.157 2°50.926 -999 0.084503 0.420456 -1.139864
2009-04-06 09:33:47 51°13.157 2°50.926 -999 0.084503 0.420469 -1.139864
2009-04-06 09:33:51 51°13.157 2°50.926 -999 0.084503 0.420482 -1.139864
2009-04-06 09:33:56 51°13.157 2°50.926 -999 0.084503 0.420501 -1.139864
2009-04-06 09:34:01 51°13.157 2°50.926 -999 0.084503 0.420514 -1.139864
2009-04-06 09:34:06 51°13.157 2°50.926 -999 0.084503 0.420514 -1.139864
2009-04-06 09:34:11 51°13.157 2°50.926 -999 0.084503 0.420521 -1.139864
2009-04-06 09:34:16 51°13.156 2°50.926 -999 0.084503 0.420534 -1.139864
2009-04-06 09:34:21 51°13.156 2°50.926 -999 0.084503 0.420547 -1.139864
2009-04-06 09:34:26 51°13.156 2°50.926 -999 0.084503 0.42056 -1.139864
2009-04-06 09:34:31 51°13.156 2°50.926 -999 0.084503 0.420567 -1.139864
2009-04-06 09:34:36 51°13.156 2°50.926 -999 0.084503 0.42058 -1.139864
2009-04-06 09:34:41 51°13.156 2°50.926 -999 0.084503 0.42058 -1.139864
2009-04-06 09:34:46 51°13.156 2°50.926 -999 0.084503 0.420593 -1.139864
2009-04-06 09:34:51 51°13.155 2°50.926 -999 0.084503 0.420612 -1.139864
2009-04-06 09:34:56 51°13.155 2°50.926 -999 0.084503 0.420619 -1.139864
2009-04-06 09:35:01 51°13.155 2°50.926 -999 0.084503 0.420632 -1.139864
2009-04-06 09:35:06 51°13.155 2°50.927 -999 0.084503 0.420632 -1.139864
2009-04-06 09:35:11 51°13.155 2°50.927 -999 0.084503 0.420645 -1.139864
2009-04-06 09:35:16 51°13.155 2°50.927 -999 0.084503 0.420658 -1.139864
2009-04-06 09:35:21 51°13.155 2°50.927 -999 0.084503 0.420671 -1.139864
2009-04-06 09:35:27 51°13.155 2°50.927 -999 0.084503 0.420684 -1.139864
2009-04-06 09:35:31 51°13.155 2°50.927 -999 0.084503 0.420704 -1.139864
2009-04-06 09:35:36 51°13.155 2°50.927 -999 0.084503 0.420704 -1.139864
2009-04-06 09:35:41 51°13.155 2°50.927 -999 0.084503 0.42071 -1.139864
2009-04-06 09:35:47 51°13.155 2°50.927 -999 0.084503 0.42073 -1.174688
2009-04-06 09:35:51 51°13.155 2°50.927 -999 0.084503 0.420743 -1.174688
2009-04-06 09:35:56 51°13.155 2°50.927 -999 0.084503 0.420749 -1.139864
2009-04-06 09:36:01 51°13.155 2°50.927 -999 0.084503 0.420762 -1.139864
2009-04-06 09:36:06 51°13.155 2°50.927 -999 0.084503 0.420762 -1.139864
2009-04-06 09:36:11 51°13.155 2°50.927 -999 0.084503 0.420776 -1.139864
2009-04-06 09:36:16 51°13.155 2°50.927 -999 0.084503 0.420789 -1.139864
2009-04-06 09:36:21 51°13.155 2°50.927 -999 0.084503 0.420802 -1.139864
2009-04-06 09:36:26 51°13.155 2°50.927 -999 0.084503 0.420815 -1.139864
2009-04-06 09:36:31 51°13.155 2°50.927 -999 0.084503 0.420821 -1.139864
2009-04-06 09:36:36 51°13.155 2°50.927 -999 0.084503 0.420834 -1.174688
2009-04-06 09:36:41 51°13.155 2°50.927 -999 0.084503 0.420834 -1.174688
2009-04-06 09:36:46 51°13.155 2°50.927 -999 0.084503 0.420854 -1.174688
2009-04-06 09:36:51 51°13.155 2°50.927 -999 0.084503 0.420861 -1.139864
2009-04-06 09:36:55 51°13.155 2°50.927 -999 0.084503 0.420874 -1.139864
2009-04-06 09:37:01 51°13.155 2°50.927 -999 0.084503 0.420887 -1.139864
2009-04-06 09:37:06 51°13.155 2°50.927 -999 0.084503 0.420887 -1.139864
2009-04-06 09:37:11 51°13.155 2°50.927 -999 0.084503 0.4209 -1.139864
2009-04-06 09:37:16 51°13.155 2°50.927 -999 0.084503 0.420906 -1.139864
2009-04-06 09:37:21 51°13.155 2°50.927 -999 0.084503 0.420919 -1.174688
2009-04-06 09:37:26 51°13.155 2°50.927 -999 0.084503 0.420932 -1.139864
2009-04-06 09:37:31 51°13.155 2°50.927 -999 0.084503 0.420939 -1.174688
2009-04-06 09:37:35 51°13.155 2°50.927 -999 0.084503 0.420939 -1.174688
2009-04-06 09:37:41 51°13.155 2°50.927 -999 0.084503 0.420952 -1.139864
2009-04-06 09:37:46 51°13.155 2°50.927 -999 0.084503 0.420959 -1.139864
2009-04-06 09:37:51 51°13.155 2°50.927 -999 0.084503 0.420972 -1.139864
2009-04-06 09:37:56 51°13.155 2°50.927 -999 0.084503 0.420985 -1.139864
2009-04-06 09:38:01 51°13.155 2°50.927 -999 0.084503 0.420998 -1.139864
2009-04-06 09:38:06 51°13.155 2°50.927 -999 0.084503 0.421004 -1.139864
2009-04-06 09:38:11 51°13.155 2°50.927 -999 0.084503 0.421004 -1.139864
2009-04-06 09:38:16 51°13.155 2°50.927 -999 0.084503 0.421017 -1.139864
2009-04-06 09:38:21 51°13.155 2°50.927 -999 0.084503 0.421037 -1.139864
2009-04-06 09:38:26 51°13.155 2°50.927 -999 0.084503 0.42105 -1.139864
2009-04-06 09:38:31 51°13.155 2°50.927 -999 0.084503 0.421057 -1.174688
2009-04-06 09:38:36 51°13.155 2°50.927 -999 0.084503 0.42107 -1.174688
2009-04-06 09:38:41 51°13.155 2°50.927 -999 0.084503 0.42107 -1.174688
2009-04-06 09:38:46 51°13.155 2°50.927 -999 0.084503 0.421089 -1.139864
2009-04-06 09:38:51 51°13.155 2°50.927 -999 0.084503 0.421096 -1.139864
2009-04-06 09:38:56 51°13.155 2°50.927 -999 0.084503 0.421109 -1.139864
2009-04-06 09:39:01 51°13.155 2°50.927 -999 0.084503 0.421116 -1.174688
2009-04-06 09:39:06 51°13.155 2°50.927 -999 0.084503 0.421116 -1.174688
2009-04-06 09:39:11 51°13.155 2°50.927 -999 0.084503 0.421135 -1.139864
2009-04-06 09:39:16 51°13.155 2°50.927 -999 0.084503 0.421142 -1.139864
2009-04-06 09:39:21 51°13.155 2°50.927 -999 0.084503 0.421155 -1.139864
2009-04-06 09:39:26 51°13.155 2°50.927 -999 0.084503 0.421168 -1.174688
2009-04-06 09:39:31 51°13.155 2°50.927 -999 0.084503 0.421181 -1.139864
2009-04-06 09:39:36 51°13.155 2°50.927 -999 0.084503 0.421181 -1.139864
2009-04-06 09:39:41 51°13.155 2°50.927 -999 0.084503 0.421194 -1.174688
2009-04-06 09:39:46 51°13.155 2°50.927 -999 0.084503 0.421207 -1.139864
2009-04-06 09:39:51 51°13.155 2°50.927 -999 0.084503 0.42122 -1.174688
2009-04-06 09:39:56 51°13.155 2°50.927 -999 0.084503 0.421234 -1.139864
2009-04-06 09:40:01 51°13.155 2°50.927 -999 0.084503 0.421247 -1.139864
2009-04-06 09:40:06 51°13.155 2°50.927 -999 0.084503 0.42126 -1.139864
2009-04-06 09:40:11 51°13.155 2°50.927 -999 0.084503 0.42126 -1.139864
2009-04-06 09:40:16 51°13.155 2°50.927 -999 0.084503 0.421266 -1.139864
2009-04-06 09:40:21 51°13.155 2°50.927 -999 0.084503 0.421286 -1.139864
2009-04-06 09:40:26 51°13.155 2°50.927 -999 0.084503 0.421293 -1.139864
2009-04-06 09:40:31 51°13.155 2°50.927 -999 0.084503 0.421306 -1.139864
2009-04-06 09:40:36 51°13.155 2°50.927 -999 0.084503 0.421306 -1.139864
2009-04-06 09:40:41 51°13.155 2°50.927 -999 0.084503 0.421319 -1.139864
2009-04-06 09:40:46 51°13.155 2°50.927 -999 0.084503 0.421332 -1.174688
2009-04-06 09:40:51 51°13.155 2°50.927 -999 0.084503 0.421345 -1.139864
2009-04-06 09:40:56 51°13.155 2°50.927 -999 0.084503 0.421358 -1.139864
2009-04-06 09:41:01 51°13.155 2°50.927 -999 0.084503 0.421365 -1.174688
2009-04-06 09:41:06 51°13.155 2°50.927 -999 0.084503 0.421365 -1.174688
2009-04-06 09:41:11 51°13.155 2°50.927 -999 0.084503 0.421378 -1.139864
2009-04-06 09:41:16 51°13.155 2°50.927 -999 0.084503 0.421391 -1.139864
2009-04-06 09:41:21 51°13.155 2°50.927 -999 0.084503 0.421404 -1.139864
2009-04-06 09:41:26 51°13.155 2°50.927 -999 0.084503 0.421417 -1.139864
2009-04-06 09:41:31 51°13.155 2°50.927 -999 0.084503 0.42143 -1.174688
2009-04-06 09:41:36 51°13.155 2°50.927 -999 0.084503 0.421437 -1.139864
2009-04-06 09:41:41 51°13.155 2°50.927 -999 0.084503 0.421437 -1.139864
2009-04-06 09:41:47 51°13.155 2°50.927 -999 0.084503 0.42145 -1.139864
2009-04-06 09:41:51 51°13.155 2°50.927 -999 0.084503 0.42147 -1.174688
2009-04-06 09:41:56 51°13.155 2°50.927 -999 0.084503 0.421483 -1.139864
2009-04-06 09:42:01 51°13.155 2°50.927 -999 0.084503 0.421489 -1.139864
2009-04-06 09:42:06 51°13.156 2°50.926 -999 0.084503 0.421502 -1.139864
2009-04-06 09:42:11 51°13.155 2°50.926 -999 0.084503 0.421502 -1.139864
2009-04-06 09:42:15 51°13.156 2°50.926 -999 0.084503 0.421515 -1.139864
2009-04-06 09:42:21 51°13.156 2°50.926 -999 0.084503 0.421529 -1.139864
2009-04-06 09:42:26 51°13.156 2°50.926 -999 0.0844 0.421004 -1.139864
2009-04-06 09:42:31 51°13.156 2°50.926 -999 0.0844 0.421018 -1.139864
2009-04-06 09:42:36 51°13.156 2°50.926 -999 0.0844 0.421018 -1.139864
2009-04-06 09:42:41 51°13.156 2°50.926 -999 0.0844 0.421031 -1.139864
2009-04-06 09:42:46 51°13.156 2°50.926 -999 0.0844 0.421044 -1.139864
2009-04-06 09:42:51 51°13.156 2°50.926 -999 0.0844 0.421057 -1.139864
2009-04-06 09:42:55 51°13.156 2°50.926 -999 0.0844 0.42107 -1.174688
2009-04-06 09:43:01 51°13.156 2°50.926 -999 0.0844 0.421083 -1.139864
2009-04-06 09:43:06 51°13.156 2°50.926 -999 0.0844 0.421083 -1.139864
2009-04-06 09:43:11 51°13.156 2°50.926 -999 0.0844 0.42109 -1.139864
2009-04-06 09:43:16 51°13.156 2°50.926 -999 0.0844 0.421109 -1.139864
2009-04-06 09:43:21 51°13.156 2°50.926 -999 0.0844 0.421122 -1.174688
2009-04-06 09:43:26 51°13.157 2°50.926 -999 0.0844 0.421136 -1.139864
2009-04-06 09:43:31 51°13.156 2°50.926 -999 0.0844 0.421149 -1.139864
2009-04-06 09:43:35 51°13.156 2°50.926 -999 0.0844 0.421155 -1.139864
2009-04-06 09:43:41 51°13.156 2°50.926 -999 0.0844 0.421155 -1.139864
2009-04-06 09:43:46 51°13.156 2°50.926 -999 0.0844 0.421175 -1.139864
2009-04-06 09:43:51 51°13.156 2°50.926 -999 0.0844 0.421182 -1.139864
2009-04-06 09:43:56 51°13.156 2°50.926 -999 0.0844 0.421195 -1.174688
2009-04-06 09:44:01 51°13.156 2°50.926 -999 0.0844 0.421208 -1.139864
2009-04-06 09:44:06 51°13.156 2°50.926 -999 0.0844 0.421208 -1.139864
2009-04-06 09:44:11 51°13.156 2°50.926 -999 0.0844 0.421221 -1.139864
2009-04-06 09:44:16 51°13.156 2°50.926 -999 0.0844 0.421227 -1.139864
2009-04-06 09:44:21 51°13.156 2°50.926 -999 0.0844 0.421247 -1.139864
2009-04-06 09:44:26 51°13.156 2°50.926 -999 0.0844 0.421254 -1.139864
2009-04-06 09:44:31 51°13.156 2°50.926 -999 0.0844 0.421267 -1.139864
2009-04-06 09:44:36 51°13.156 2°50.926 -999 0.0844 0.421267 -1.139864
2009-04-06 09:44:41 51°13.156 2°50.926 -999 0.0844 0.421273 -1.139864
2009-04-06 09:44:46 51°13.156 2°50.926 -999 0.0844 0.421287 -1.139864
2009-04-06 09:44:51 51°13.156 2°50.927 -999 0.0844 0.4213 -1.174688
2009-04-06 09:44:56 51°13.156 2°50.927 -999 0.0844 0.421313 -1.139864
2009-04-06 09:45:01 51°13.156 2°50.927 -999 0.0844 0.421319 -1.139864
2009-04-06 09:45:07 51°13.156 2°50.927 -999 0.0844 0.421332 -1.139864
2009-04-06 09:45:11 51°13.156 2°50.927 -999 0.0844 0.421332 -1.139864
2009-04-06 09:45:16 51°13.156 2°50.927 -999 0.0844 0.421339 -1.139864
2009-04-06 09:45:21 51°13.156 2°50.927 -999 0.0844 0.421352 -1.139864
2009-04-06 09:45:26 51°13.156 2°50.927 -999 0.0844 0.421359 -1.174688
2009-04-06 09:45:31 51°13.156 2°50.928 -999 0.0844 0.421372 -1.139864
2009-04-06 09:45:36 51°13.155 2°50.928 -999 0.0844 0.421385 -1.174688
2009-04-06 09:45:41 51°13.155 2°50.928 -999 0.0844 0.421385 -1.174688
2009-04-06 09:45:46 51°13.155 2°50.928 -999 0.0844 0.421392 -1.139864
2009-04-06 09:45:51 51°13.155 2°50.928 -999 0.0844 0.421398 -1.174688
2009-04-06 09:45:56 51°13.155 2°50.928 -999 0.0844 0.421418 -1.174688
2009-04-06 09:46:01 51°13.155 2°50.928 -999 0.0844 0.421424 -1.174688
2009-04-06 09:46:06 51°13.155 2°50.928 -999 0.0844 0.421424 -1.174688
2009-04-06 09:46:11 51°13.155 2°50.928 -999 0.0844 0.421431 -1.139864
2009-04-06 09:46:16 51°13.155 2°50.928 -999 0.0844 0.421444 -1.174688
2009-04-06 09:46:21 51°13.155 2°50.928 -999 0.0844 0.421451 -1.139864
2009-04-06 09:46:26 51°13.155 2°50.928 -999 0.0844 0.421464 -1.139864
2009-04-06 09:46:31 51°13.155 2°50.928 -999 0.0844 0.421484 -1.174688
2009-04-06 09:46:36 51°13.155 2°50.928 -999 0.0844 0.421484 -1.174688
2009-04-06 09:46:41 51°13.155 2°50.928 -999 0.0844 0.42149 -1.174688
2009-04-06 09:46:47 51°13.155 2°50.928 -999 0.0844 0.421503 -1.174688
2009-04-06 09:46:51 51°13.155 2°50.928 -999 0.0844 0.42151 -1.139864
2009-04-06 09:46:56 51°13.155 2°50.928 -999 0.0844 0.421523 -1.139864
2009-04-06 09:47:01 51°13.155 2°50.928 -999 0.0844 0.421536 -1.174688
2009-04-06 09:47:07 51°13.155 2°50.928 -999 0.0844 0.421549 -1.174688
2009-04-06 09:47:11 51°13.155 2°50.928 -999 0.0844 0.421549 -1.174688
2009-04-06 09:47:16 51°13.155 2°50.928 -999 0.0844 0.421556 -1.139864
2009-04-06 09:47:21 51°13.155 2°50.928 -999 0.0844 0.421569 -1.174688
2009-04-06 09:47:26 51°13.155 2°50.929 -999 0.0844 0.421576 -1.139864
2009-04-06 09:47:31 51°13.155 2°50.928 -999 0.0844 0.421589 -1.139864
2009-04-06 09:47:36 51°13.155 2°50.929 -999 0.0844 0.421602 -1.139864
2009-04-06 09:47:41 51°13.155 2°50.929 -999 0.0844 0.421602 -1.139864
2009-04-06 09:47:46 51°13.155 2°50.928 -999 0.0844 0.421615 -1.139864
2009-04-06 09:47:51 51°13.155 2°50.929 -999 0.0844 0.421622 -1.139864
2009-04-06 09:47:56 51°13.155 2°50.928 -999 0.0844 0.421635 -1.139864
2009-04-06 09:48:01 51°13.154 2°50.928 -999 0.0844 0.421641 -1.139864
2009-04-06 09:48:06 51°13.154 2°50.928 -999 0.0844 0.421641 -1.139864
2009-04-06 09:48:11 51°13.154 2°50.928 -999 0.0844 0.421648 -1.139864
2009-04-06 09:48:16 51°13.154 2°50.928 -999 0.0844 0.421668 -1.139864
2009-04-06 09:48:21 51°13.154 2°50.928 -999 0.084297 0.421143 -1.174688
2009-04-06 09:48:26 51°13.154 2°50.928 -999 0.084297 0.421156 -1.139864
2009-04-06 09:48:31 51°13.154 2°50.928 -999 0.084297 0.421162 -1.139864
2009-04-06 09:48:35 51°13.154 2°50.928 -999 0.084297 0.421162 -1.139864
2009-04-06 09:48:41 51°13.154 2°50.928 -999 0.084297 0.421176 -1.139864
2009-04-06 09:48:46 51°13.154 2°50.928 -999 0.084297 0.421182 -1.139864
2009-04-06 09:48:51 51°13.154 2°50.928 -999 0.084297 0.421189 -1.139864
2009-04-06 09:48:56 51°13.154 2°50.928 -999 0.084297 0.421202 -1.139864
2009-04-06 09:49:01 51°13.154 2°50.928 -999 0.084297 0.421222 -1.139864
2009-04-06 09:49:06 51°13.153 2°50.928 -999 0.084297 0.421228 -1.139864
2009-04-06 09:49:11 51°13.153 2°50.928 -999 0.084297 0.421228 -1.139864
2009-04-06 09:49:15 51°13.153 2°50.928 -999 0.084297 0.421241 -1.139864
2009-04-06 09:49:21 51°13.153 2°50.928 -999 0.084297 0.421248 -1.139864
2009-04-06 09:49:26 51°13.153 2°50.928 -999 0.084297 0.421268 -1.139864
2009-04-06 09:49:31 51°13.153 2°50.928 -999 0.084297 0.421281 -1.139864
2009-04-06 09:49:36 51°13.153 2°50.928 -999 0.084297 0.421281 -1.139864
2009-04-06 09:49:41 51°13.153 2°50.928 -999 0.084297 0.421287 -1.139864
2009-04-06 09:49:46 51°13.153 2°50.928 -999 0.084297 0.421307 -1.174688
2009-04-06 09:49:51 51°13.153 2°50.928 -999 0.084297 0.42132 -1.174688
2009-04-06 09:49:56 51°13.153 2°50.928 -999 0.084297 0.421333 -1.174688
2009-04-06 09:50:01 51°13.153 2°50.928 -999 0.084297 0.421347 -1.139864
2009-04-06 09:50:06 51°13.153 2°50.928 -999 0.084297 0.421347 -1.139864
2009-04-06 09:50:11 51°13.153 2°50.928 -999 0.084297 0.42136 -1.139864
2009-04-06 09:50:16 51°13.153 2°50.928 -999 0.084297 0.421373 -1.139864
2009-04-06 09:50:21 51°13.153 2°50.928 -999 0.084297 0.421386 -1.139864
2009-04-06 09:50:26 51°13.153 2°50.928 -999 0.084297 0.421399 -1.139864
2009-04-06 09:50:31 51°13.153 2°50.928 -999 0.084297 0.421412 -1.139864
2009-04-06 09:50:36 51°13.153 2°50.927 -999 0.084297 0.421419 -1.139864
2009-04-06 09:50:41 51°13.152 2°50.928 -999 0.084297 0.421419 -1.139864
2009-04-06 09:50:46 51°13.153 2°50.927 -999 0.084297 0.421432 -1.139864
2009-04-06 09:50:51 51°13.152 2°50.927 -999 0.084297 0.421445 -1.139864
2009-04-06 09:50:56 51°13.152 2°50.927 -999 0.084297 0.421458 -1.174688
2009-04-06 09:51:01 51°13.152 2°50.927 -999 0.084297 0.421472 -1.174688
2009-04-06 09:51:06 51°13.152 2°50.927 -999 0.084297 0.421485 -1.139864
2009-04-06 09:51:11 51°13.152 2°50.927 -999 0.084297 0.421485 -1.139864
2009-04-06 09:51:16 51°13.152 2°50.927 -999 0.084297 0.421498 -1.174688
2009-04-06 09:51:21 51°13.152 2°50.927 -999 0.084297 0.421504 -1.174688
2009-04-06 09:51:27 51°13.152 2°50.927 -999 0.084297 0.421518 -1.139864
2009-04-06 09:51:31 51°13.152 2°50.927 -999 0.084297 0.421524 -1.174688
2009-04-06 09:51:36 51°13.152 2°50.927 -999 0.084297 0.421524 -1.174688
2009-04-06 09:51:41 51°13.152 2°50.928 -999 0.084297 0.421544 -1.139864
2009-04-06 09:51:47 51°13.152 2°50.927 -999 0.084297 0.421557 -1.139864
2009-04-06 09:51:51 51°13.152 2°50.927 -999 0.084297 0.42157 -1.139864
2009-04-06 09:51:56 51°13.152 2°50.927 -999 0.084297 0.421577 -1.139864
2009-04-06 09:52:01 51°13.152 2°50.927 -999 0.084297 0.42159 -1.139864
2009-04-06 09:52:06 51°13.152 2°50.928 -999 0.084297 0.42159 -1.139864
2009-04-06 09:52:11 51°13.152 2°50.927 -999 0.084297 0.421597 -1.174688
2009-04-06 09:52:16 51°13.152 2°50.928 -999 0.084297 0.42161 -1.174688
2009-04-06 09:52:21 51°13.152 2°50.927 -999 0.084297 0.421616 -1.174688
2009-04-06 09:52:26 51°13.152 2°50.928 -999 0.084297 0.421623 -1.174688
2009-04-06 09:52:31 51°13.152 2°50.927 -999 0.084297 0.42163 -1.174688
2009-04-06 09:52:36 51°13.152 2°50.928 -999 0.084297 0.421643 -1.174688
2009-04-06 09:52:41 51°13.152 2°50.928 -999 0.084297 0.421643 -1.174688
2009-04-06 09:52:46 51°13.152 2°50.928 -999 0.084297 0.421656 -1.139864
2009-04-06 09:52:51 51°13.152 2°50.928 -999 0.084297 0.421676 -1.174688
2009-04-06 09:52:56 51°13.152 2°50.928 -999 0.084297 0.421702 -1.139864
2009-04-06 09:53:01 51°13.152 2°50.928 -999 0.084297 0.421722 -1.139864
2009-04-06 09:53:06 51°13.152 2°50.928 -999 0.084194 0.421209 -1.139864
2009-04-06 09:53:11 51°13.152 2°50.928 -999 0.084194 0.421209 -1.139864
2009-04-06 09:53:16 51°13.153 2°50.928 -999 0.084194 0.421223 -1.139864
2009-04-06 09:53:21 51°13.153 2°50.928 -999 0.084194 0.421236 -1.139864
2009-04-06 09:53:27 51°13.153 2°50.928 -999 0.084194 0.421242 -1.174688
2009-04-06 09:53:31 51°13.153 2°50.928 -999 0.084194 0.421249 -1.139864
2009-04-06 09:53:36 51°13.153 2°50.928 -999 0.084194 0.421249 -1.139864
2009-04-06 09:53:41 51°13.153 2°50.927 -999 0.084194 0.421255 -1.139864
2009-04-06 09:53:47 51°13.153 2°50.927 -999 0.084194 0.421262 -1.174688
2009-04-06 09:53:51 51°13.153 2°50.927 -999 0.084194 0.421269 -1.139864
2009-04-06 09:53:56 51°13.153 2°50.927 -999 0.084194 0.421275 -1.139864
2009-04-06 09:54:01 51°13.153 2°50.927 -999 0.084194 0.421288 -1.139864
2009-04-06 09:54:07 51°13.153 2°50.927 -999 0.084194 0.421302 -1.174688
2009-04-06 09:54:11 51°13.153 2°50.927 -999 0.084194 0.421302 -1.174688
2009-04-06 09:54:16 51°13.153 2°50.927 -999 0.084194 0.421315 -1.174688
2009-04-06 09:54:21 51°13.153 2°50.927 -999 0.084194 0.421328 -1.139864
2009-04-06 09:54:26 51°13.153 2°50.927 -999 0.084194 0.421341 -1.139864
2009-04-06 09:54:31 51°13.153 2°50.927 -999 0.084194 0.421361 -1.174688
2009-04-06 09:54:35 51°13.153 2°50.927 -999 0.084194 0.421374 -1.139864
2009-04-06 09:54:41 51°13.153 2°50.927 -999 0.084194 0.421374 -1.139864
2009-04-06 09:54:46 51°13.153 2°50.927 -999 0.084194 0.421387 -1.174688
2009-04-06 09:54:51 51°13.153 2°50.927 -999 0.084194 0.4214 -1.174688
2009-04-06 09:54:56 51°13.153 2°50.927 -999 0.084194 0.421414 -1.139864
2009-04-06 09:55:01 51°13.153 2°50.927 -999 0.084194 0.42142 -1.174688
2009-04-06 09:55:06 51°13.153 2°50.927 -999 0.084194 0.42142 -1.174688
2009-04-06 09:55:11 51°13.153 2°50.927 -999 0.084194 0.421433 -1.139864
2009-04-06 09:55:15 51°13.153 2°50.927 -999 0.084194 0.42144 -1.139864
2009-04-06 09:55:21 51°13.153 2°50.927 -999 0.084194 0.421453 -1.174688
2009-04-06 09:55:26 51°13.153 2°50.927 -999 0.084194 0.42146 -1.139864
2009-04-06 09:55:31 51°13.153 2°50.928 -999 0.084194 0.421473 -1.139864
2009-04-06 09:55:36 51°13.153 2°50.928 -999 0.084194 0.421473 -1.139864
2009-04-06 09:55:41 51°13.153 2°50.928 -999 0.084194 0.421479 -1.174688
2009-04-06 09:55:46 51°13.153 2°50.928 -999 0.084194 0.421493 -1.139864
2009-04-06 09:55:51 51°13.153 2°50.928 -999 0.084194 0.421506 -1.174688
2009-04-06 09:55:55 51°13.153 2°50.928 -999 0.084194 0.421519 -1.174688
2009-04-06 09:56:01 51°13.153 2°50.928 -999 0.084194 0.421532 -1.139864
2009-04-06 09:56:06 51°13.153 2°50.928 -999 0.084194 0.421552 -1.174688
2009-04-06 09:56:11 51°13.153 2°50.928 -999 0.084194 0.421552 -1.174688
2009-04-06 09:56:16 51°13.153 2°50.928 -999 0.084194 0.421559 -1.174688
2009-04-06 09:56:21 51°13.153 2°50.928 -999 0.084194 0.421572 -1.139864
2009-04-06 09:56:26 51°13.153 2°50.928 -999 0.084194 0.421585 -1.174688
2009-04-06 09:56:31 51°13.153 2°50.928 -999 0.084194 0.421592 -1.139864
2009-04-06 09:56:36 51°13.153 2°50.928 -999 0.084194 0.421605 -1.139864
2009-04-06 09:56:41 51°13.153 2°50.928 -999 0.084194 0.421605 -1.139864
2009-04-06 09:56:46 51°13.153 2°50.928 -999 0.084194 0.421618 -1.174688
2009-04-06 09:56:51 51°13.152 2°50.928 -999 0.084194 0.421631 -1.174688
2009-04-06 09:56:56 51°13.153 2°50.928 -999 0.084194 0.421644 -1.174688
2009-04-06 09:57:01 51°13.152 2°50.928 -999 0.084194 0.421651 -1.139864
2009-04-06 09:57:06 51°13.152 2°50.928 -999 0.084194 0.421651 -1.139864
2009-04-06 09:57:11 51°13.152 2°50.928 -999 0.084194 0.421664 -1.174688
2009-04-06 09:57:16 51°13.152 2°50.928 -999 0.084194 0.421677 -1.174688
2009-04-06 09:57:21 51°13.152 2°50.928 -999 0.084194 0.421691 -1.139864
2009-04-06 09:57:26 51°13.152 2°50.928 -999 0.084194 0.421697 -1.174688
2009-04-06 09:57:31 51°13.152 2°50.928 -999 0.084194 0.421717 -1.174688
2009-04-06 09:57:36 51°13.152 2°50.928 -999 0.084194 0.421724 -1.139864
2009-04-06 09:57:41 51°13.152 2°50.928 -999 0.084194 0.421724 -1.139864
2009-04-06 09:57:46 51°13.152 2°50.928 -999 0.084194 0.421743 -1.139864
2009-04-06 09:57:51 51°13.152 2°50.928 -999 0.084091 0.421224 -1.139864
2009-04-06 09:57:56 51°13.152 2°50.928 -999 0.084091 0.42123 -1.174688
2009-04-06 09:58:01 51°13.152 2°50.928 -999 0.084091 0.421243 -1.139864
2009-04-06 09:58:06 51°13.152 2°50.928 -999 0.084091 0.421257 -1.139864
2009-04-06 09:58:11 51°13.152 2°50.928 -999 0.084091 0.421257 -1.139864
2009-04-06 09:58:16 51°13.152 2°50.928 -999 0.084091 0.42127 -1.139864
2009-04-06 09:58:21 51°13.152 2°50.928 -999 0.084091 0.421283 -1.174688
2009-04-06 09:58:27 51°13.152 2°50.928 -999 0.084091 0.42129 -1.139864
2009-04-06 09:58:31 51°13.152 2°50.928 -999 0.084091 0.421303 -1.139864
2009-04-06 09:58:36 51°13.152 2°50.928 -999 0.084091 0.421303 -1.139864
2009-04-06 09:58:41 51°13.152 2°50.928 -999 0.084091 0.421323 -1.174688
2009-04-06 09:58:46 51°13.152 2°50.928 -999 0.084091 0.421329 -1.139864
2009-04-06 09:58:51 51°13.151 2°50.928 -999 0.084091 0.421342 -1.174688
2009-04-06 09:58:56 51°13.152 2°50.928 -999 0.084091 0.421356 -1.174688
2009-04-06 09:59:01 51°13.151 2°50.928 -999 0.084091 0.421369 -1.174688
2009-04-06 09:59:06 51°13.151 2°50.928 -999 0.084091 0.421369 -1.174688
2009-04-06 09:59:11 51°13.151 2°50.928 -999 0.084091 0.421382 -1.139864
2009-04-06 09:59:16 51°13.151 2°50.928 -999 0.084091 0.421395 -1.174688
2009-04-06 09:59:21 51°13.152 2°50.928 -999 0.084091 0.421408 -1.139864
2009-04-06 09:59:26 51°13.152 2°50.928 -999 0.084091 0.421422 -1.139864
2009-04-06 09:59:31 51°13.151 2°50.928 -999 0.084091 0.421435 -1.174688
2009-04-06 09:59:36 51°13.152 2°50.928 -999 0.084091 0.421442 -1.139864
2009-04-06 09:59:41 51°13.152 2°50.928 -999 0.084091 0.421442 -1.139864
2009-04-06 09:59:46 51°13.152 2°50.928 -999 0.084091 0.421455 -1.174688
2009-04-06 09:59:51 51°13.152 2°50.928 -999 0.084091 0.421468 -1.174688
2009-04-06 09:59:56 51°13.152 2°50.928 -999 0.084091 0.421481 -1.174688
2009-04-06 10:00:01 51°13.152 2°50.928 -999 0.084091 0.421494 -1.174688
2009-04-06 10:00:06 51°13.152 2°50.928 -999 0.084091 0.421508 -1.139864
2009-04-06 10:00:11 51°13.152 2°50.928 -999 0.084091 0.421508 -1.139864
2009-04-06 10:00:16 51°13.152 2°50.928 -999 0.084091 0.421521 -1.139864
2009-04-06 10:00:21 51°13.152 2°50.928 -999 0.084091 0.421527 -1.174688
2009-04-06 10:00:27 51°13.152 2°50.928 -999 0.084091 0.421541 -1.139864
2009-04-06 10:00:31 51°13.152 2°50.928 -999 0.084091 0.421547 -1.174688
2009-04-06 10:00:36 51°13.152 2°50.928 -999 0.084091 0.421547 -1.174688
2009-04-06 10:00:41 51°13.152 2°50.928 -999 0.084091 0.421554 -1.139864
2009-04-06 10:00:47 51°13.153 2°50.928 -999 0.084091 0.421574 -1.174688
2009-04-06 10:00:51 51°13.153 2°50.928 -999 0.084091 0.42158 -1.139864
2009-04-06 10:00:56 51°13.153 2°50.928 -999 0.084091 0.421587 -1.174688
2009-04-06 10:01:01 51°13.153 2°50.928 -999 0.084091 0.421593 -1.139864
2009-04-06 10:01:06 51°13.153 2°50.928 -999 0.084091 0.421593 -1.139864
2009-04-06 10:01:11 51°13.153 2°50.928 -999 0.084091 0.421607 -1.174688
2009-04-06 10:01:16 51°13.153 2°50.928 -999 0.084091 0.42162 -1.174688
2009-04-06 10:01:21 51°13.154 2°50.928 -999 0.084091 0.421627 -1.174688
2009-04-06 10:01:26 51°13.154 2°50.928 -999 0.084091 0.42164 -1.174688
2009-04-06 10:01:31 51°13.154 2°50.928 -999 0.084091 0.421653 -1.139864
2009-04-06 10:01:36 51°13.153 2°50.928 -999 0.084091 0.421666 -1.139864
2009-04-06 10:01:41 51°13.153 2°50.927 -999 0.084091 0.421666 -1.139864
2009-04-06 10:01:46 51°13.153 2°50.927 -999 0.084091 0.421673 -1.139864